Wetterdaten: Dienstag, 25.10.2022
Datum Zeit Temp. Aussen Temp. o. S. Temp +5cm Feuchte Auss Luftdruck Regen Sonnenschein Regendauer Solar Windben Empfang
25.10.2022 00:00 13,0 C 12,2 C 8,9 C 96 % 1011,9 hPa 0,0 l/m 0 min 0 min 0 W/m 12,9 km/h (3 Bft) 95,74 %
25.10.2022 00:02 13,0 C 12,2 C 8,9 C 96 % 1011,8 hPa 0,0 l/m 0 min 0 min 0 W/m 22,5 km/h (4 Bft) 93,33 %
25.10.2022 00:04 13,1 C 12,2 C 8,9 C 96 % 1011,9 hPa 0,0 l/m 0 min 0 min 0 W/m 19,3 km/h (3 Bft) 95,74 %
25.10.2022 00:08 13,1 C 12,2 C 8,9 C 96 % 1011,9 hPa 0,0 l/m 0 min 0 min 0 W/m 19,3 km/h (3 Bft) 93,98 %
25.10.2022 00:10 13,1 C 12,2 C 8,9 C 96 % 1011,9 hPa 0,0 l/m 0 min 0 min 0 W/m 12,9 km/h (3 Bft) 95,74 %
25.10.2022 00:12 13,1 C 12,2 C 8,9 C 96 % 1012,0 hPa 0,0 l/m 0 min 0 min 0 W/m 22,5 km/h (4 Bft) 95,74 %
25.10.2022 00:14 13,1 C 12,2 C 8,9 C 96 % 1012,0 hPa 0,0 l/m 0 min 0 min 0 W/m 16,1 km/h (3 Bft) 97,83 %
25.10.2022 00:16 13,2 C 12,2 C 8,9 C 96 % 1012,0 hPa 0,0 l/m 0 min 0 min 0 W/m 19,3 km/h (3 Bft) 93,62 %
25.10.2022 00:18 13,2 C 12,2 C 8,9 C 96 % 1012,0 hPa 0,0 l/m 0 min 0 min 0 W/m 16,1 km/h (3 Bft) 95,74 %
25.10.2022 00:20 13,2 C 12,2 C 8,9 C 96 % 1012,0 hPa 0,0 l/m 0 min 0 min 0 W/m 9,7 km/h (2 Bft) 93,62 %
25.10.2022 00:22 13,2 C 12,2 C 8,9 C 96 % 1012,0 hPa 0,0 l/m 0 min 0 min 0 W/m 12,9 km/h (3 Bft) 95,74 %
25.10.2022 00:24 13,2 C 12,2 C 8,9 C 96 % 1012,0 hPa 0,0 l/m 0 min 0 min 0 W/m 16,1 km/h (3 Bft) 95,74 %
25.10.2022 00:26 13,2 C 12,8 C 8,9 C 96 % 1012,0 hPa 0,0 l/m 0 min 0 min 0 W/m 16,1 km/h (3 Bft) 97,83 %
25.10.2022 00:28 13,2 C 12,2 C 8,9 C 96 % 1012,0 hPa 0,0 l/m 0 min 0 min 0 W/m 12,9 km/h (3 Bft) 95,74 %
25.10.2022 00:30 13,2 C 12,2 C 8,9 C 96 % 1012,0 hPa 0,0 l/m 0 min 0 min 0 W/m 12,9 km/h (3 Bft) 95,74 %
25.10.2022 00:32 13,2 C 12,2 C 8,9 C 96 % 1012,1 hPa 0,0 l/m 0 min 0 min 0 W/m 12,9 km/h (3 Bft) 95,74 %
25.10.2022 00:34 13,2 C 12,2 C 8,9 C 96 % 1012,1 hPa 0,0 l/m 0 min 0 min 0 W/m 22,5 km/h (4 Bft) 93,62 %
25.10.2022 00:36 13,3 C 12,8 C 8,9 C 96 % 1012,1 hPa 0,0 l/m 0 min 0 min 0 W/m 19,3 km/h (3 Bft) 94,83 %
25.10.2022 00:38 13,3 C 12,8 C 8,9 C 96 % 1012,1 hPa 0,0 l/m 0 min 0 min 0 W/m 16,1 km/h (3 Bft) 94,29 %
25.10.2022 00:40 13,3 C 12,8 C 8,9 C 96 % 1012,1 hPa 0,0 l/m 0 min 0 min 0 W/m 25,7 km/h (4 Bft) 95,74 %
25.10.2022 00:42 13,3 C 12,8 C 8,9 C 96 % 1012,1 hPa 0,0 l/m 0 min 0 min 0 W/m 19,3 km/h (3 Bft) 95,74 %
25.10.2022 00:44 13,3 C 12,8 C 8,9 C 96 % 1012,1 hPa 0,0 l/m 0 min 0 min 0 W/m 12,9 km/h (3 Bft) 95,74 %
25.10.2022 00:46 13,4 C 12,8 C 8,9 C 96 % 1012,1 hPa 0,0 l/m 0 min 0 min 0 W/m 16,1 km/h (3 Bft) 91,49 %
25.10.2022 00:48 13,4 C 12,8 C 8,9 C 96 % 1012,2 hPa 0,0 l/m 0 min 0 min 0 W/m 6,4 km/h (2 Bft) 95,74 %
25.10.2022 00:50 13,4 C 12,8 C 8,9 C 96 % 1012,1 hPa 0,0 l/m 0 min 0 min 0 W/m 6,4 km/h (2 Bft) 95,65 %
25.10.2022 00:52 13,4 C 12,8 C 8,9 C 96 % 1012,1 hPa 0,0 l/m 0 min 0 min 0 W/m 16,1 km/h (3 Bft) 97,87 %
25.10.2022 00:54 13,4 C 12,8 C 8,9 C 96 % 1012,2 hPa 0,0 l/m 0 min 0 min 0 W/m 9,7 km/h (2 Bft) 97,87 %
25.10.2022 00:56 13,4 C 12,8 C 8,9 C 96 % 1012,2 hPa 0,0 l/m 0 min 0 min 0 W/m 16,1 km/h (3 Bft) 97,87 %
25.10.2022 00:58 13,4 C 12,8 C 8,9 C 96 % 1012,2 hPa 0,0 l/m 0 min 0 min 0 W/m 22,5 km/h (4 Bft) 95,74 %
25.10.2022 01:00 13,4 C 12,8 C 8,9 C 96 % 1012,2 hPa 0,0 l/m 0 min 0 min 0 W/m 16,1 km/h (3 Bft) 100,00 %
25.10.2022 01:02 13,4 C 12,8 C 8,9 C 96 % 1012,3 hPa 0,0 l/m 0 min 0 min 0 W/m 12,9 km/h (3 Bft) 100,00 %
25.10.2022 01:04 13,4 C 12,8 C 8,9 C 96 % 1012,3 hPa 0,0 l/m 0 min 0 min 0 W/m 9,7 km/h (2 Bft) 97,87 %
25.10.2022 01:06 13,4 C 12,8 C 8,9 C 96 % 1012,3 hPa 0,0 l/m 0 min 0 min 0 W/m 16,1 km/h (3 Bft) 100,00 %
25.10.2022 01:08 13,4 C 12,8 C 8,9 C 96 % 1012,3 hPa 0,0 l/m 0 min 0 min 0 W/m 16,1 km/h (3 Bft) 97,14 %
25.10.2022 01:10 13,4 C 12,8 C 8,9 C 96 % 1012,4 hPa 0,0 l/m 0 min 0 min 0 W/m 12,9 km/h (3 Bft) 89,36 %
25.10.2022 01:12 13,4 C 12,8 C 8,9 C 96 % 1012,4 hPa 0,0 l/m 0 min 0 min 0 W/m 16,1 km/h (3 Bft) 65,91 %
25.10.2022 01:14 13,4 C 12,8 C 8,9 C 96 % 1012,4 hPa 0,0 l/m 0 min 0 min 0 W/m 6,4 km/h (2 Bft) 100,00 %
25.10.2022 01:16 13,4 C 12,2 C 8,9 C 96 % 1012,4 hPa 0,0 l/m 0 min 0 min 0 W/m 12,9 km/h (3 Bft) 100,00 %
25.10.2022 01:18 13,4 C 12,8 C 8,9 C 96 % 1012,4 hPa 0,0 l/m 0 min 0 min 0 W/m 12,9 km/h (3 Bft) 100,00 %
25.10.2022 01:20 13,4 C 12,8 C 8,9 C 96 % 1012,4 hPa 0,0 l/m 0 min 0 min 0 W/m 16,1 km/h (3 Bft) 95,74 %
25.10.2022 01:22 13,4 C 12,8 C 8,9 C 96 % 1012,5 hPa 0,0 l/m 0 min 0 min 0 W/m 16,1 km/h (3 Bft) 96,30 %
25.10.2022 01:24 13,4 C 12,8 C 8,9 C 96 % 1012,5 hPa 0,0 l/m 0 min 0 min 0 W/m 6,4 km/h (2 Bft) 100,00 %
25.10.2022 01:26 13,4 C 12,8 C 8,9 C 96 % 1012,5 hPa 0,0 l/m 0 min 0 min 0 W/m 12,9 km/h (3 Bft) 100,00 %
25.10.2022 01:28 13,4 C 12,8 C 8,9 C 96 % 1012,6 hPa 0,0 l/m 0 min 0 min 0 W/m 22,5 km/h (4 Bft) 100,00 %
25.10.2022 01:30 13,4 C 12,8 C 8,9 C 96 % 1012,6 hPa 0,0 l/m 0 min 0 min 0 W/m 12,9 km/h (3 Bft) 100,00 %
25.10.2022 01:32 13,4 C 12,8 C 8,9 C 96 % 1012,6 hPa 0,0 l/m 0 min 0 min 0 W/m 12,9 km/h (3 Bft) 96,00 %
25.10.2022 01:34 13,4 C 12,8 C 8,9 C 96 % 1012,6 hPa 0,0 l/m 0 min 0 min 0 W/m 12,9 km/h (3 Bft) 94,59 %
25.10.2022 01:36 13,4 C 12,8 C 8,9 C 96 % 1012,7 hPa 0,0 l/m 0 min 0 min 0 W/m 16,1 km/h (3 Bft) 98,28 %
25.10.2022 01:38 13,4 C 12,8 C 8,9 C 96 % 1012,6 hPa 0,0 l/m 0 min 0 min 0 W/m 19,3 km/h (3 Bft) 95,24 %
25.10.2022 01:40 13,5 C 12,8 C 8,9 C 96 % 1012,7 hPa 0,0 l/m 0 min 0 min 0 W/m 12,9 km/h (3 Bft) 95,74 %
25.10.2022 01:42 13,5 C 12,8 C 8,9 C 96 % 1012,8 hPa 0,0 l/m 0 min 0 min 0 W/m 19,3 km/h (3 Bft) 98,00 %
25.10.2022 01:44 13,5 C 12,8 C 8,9 C 96 % 1012,8 hPa 0,0 l/m 0 min 0 min 0 W/m 9,7 km/h (2 Bft) 97,30 %
25.10.2022 01:46 13,5 C 12,8 C 8,9 C 95 % 1012,8 hPa 0,0 l/m 0 min 0 min 0 W/m 16,1 km/h (3 Bft) 97,87 %
25.10.2022 01:48 13,6 C 12,8 C 8,9 C 96 % 1012,8 hPa 0,0 l/m 0 min 0 min 0 W/m 16,1 km/h (3 Bft) 98,11 %
25.10.2022 01:50 13,5 C 12,8 C 8,9 C 96 % 1012,8 hPa 0,0 l/m 0 min 0 min 0 W/m 6,4 km/h (2 Bft) 96,00 %
25.10.2022 01:52 13,5 C 12,8 C 8,9 C 96 % 1012,8 hPa 0,0 l/m 0 min 0 min 0 W/m 12,9 km/h (3 Bft) 97,30 %
25.10.2022 01:54 13,5 C 12,8 C 8,9 C 95 % 1012,8 hPa 0,0 l/m 0 min 0 min 0 W/m 9,7 km/h (2 Bft) 96,00 %
25.10.2022 01:56 13,5 C 12,8 C 8,9 C 95 % 1012,9 hPa 0,0 l/m 0 min 0 min 0 W/m 9,7 km/h (2 Bft) 96,23 %
25.10.2022 01:58 13,5 C 12,8 C 8,9 C 95 % 1012,9 hPa 0,0 l/m 0 min 0 min 0 W/m 19,3 km/h (3 Bft) 97,67 %
25.10.2022 02:00 13,5 C 12,8 C 8,9 C 95 % 1012,8 hPa 0,0 l/m 0 min 0 min 0 W/m 16,1 km/h (3 Bft) 97,73 %
25.10.2022 02:02 13,5 C 12,8 C 8,9 C 95 % 1012,8 hPa 0,0 l/m 0 min 0 min 0 W/m 12,9 km/h (3 Bft) 94,00 %
25.10.2022 02:04 13,5 C 12,8 C 8,9 C 95 % 1012,9 hPa 0,0 l/m 0 min 0 min 0 W/m 6,4 km/h (2 Bft) 98,00 %
25.10.2022 02:06 13,5 C 12,8 C 8,9 C 95 % 1012,9 hPa 0,0 l/m 0 min 0 min 0 W/m 12,9 km/h (3 Bft) 100,00 %
25.10.2022 02:08 13,4 C 12,8 C 8,9 C 95 % 1013,0 hPa 0,0 l/m 0 min 0 min 0 W/m 12,9 km/h (3 Bft) 100,00 %
25.10.2022 02:10 13,4 C 12,8 C 8,9 C 95 % 1013,0 hPa 0,0 l/m 0 min 0 min 0 W/m 9,7 km/h (2 Bft) 100,00 %
25.10.2022 02:14 13,4 C 12,8 C 8,9 C 95 % 1013,0 hPa 0,0 l/m 0 min 0 min 0 W/m 12,9 km/h (3 Bft) 100,00 %
25.10.2022 02:16 13,4 C 12,8 C 8,9 C 95 % 1013,0 hPa 0,0 l/m 0 min 0 min 0 W/m 9,7 km/h (2 Bft) 95,74 %
25.10.2022 02:18 13,4 C 12,8 C 8,9 C 95 % 1013,0 hPa 0,0 l/m 0 min 0 min 0 W/m 6,4 km/h (2 Bft) 97,87 %
25.10.2022 02:20 13,4 C 12,8 C 8,9 C 95 % 1013,0 hPa 0,0 l/m 0 min 0 min 0 W/m 12,9 km/h (3 Bft) 97,83 %
25.10.2022 02:22 13,4 C 12,8 C 8,9 C 95 % 1013,0 hPa 0,0 l/m 0 min 0 min 0 W/m 6,4 km/h (2 Bft) 100,00 %
25.10.2022 02:24 13,5 C 12,8 C 8,9 C 95 % 1013,0 hPa 0,0 l/m 0 min 0 min 0 W/m 12,9 km/h (3 Bft) 100,00 %
25.10.2022 02:26 13,5 C 12,8 C 8,9 C 95 % 1013,1 hPa 0,0 l/m 0 min 0 min 0 W/m 12,9 km/h (3 Bft) 97,87 %
25.10.2022 02:28 13,5 C 12,8 C 8,9 C 95 % 1013,1 hPa 0,0 l/m 0 min 0 min 0 W/m 12,9 km/h (3 Bft) 100,00 %
25.10.2022 02:30 13,6 C 12,8 C 8,9 C 95 % 1013,1 hPa 0,0 l/m 0 min 0 min 0 W/m 19,3 km/h (3 Bft) 100,00 %
25.10.2022 02:32 13,6 C 12,8 C 8,9 C 95 % 1013,1 hPa 0,0 l/m 0 min 0 min 0 W/m 12,9 km/h (3 Bft) 97,83 %
25.10.2022 02:34 13,6 C 12,8 C 8,9 C 95 % 1013,1 hPa 0,0 l/m 0 min 0 min 0 W/m 16,1 km/h (3 Bft) 97,87 %
25.10.2022 02:36 13,6 C 12,8 C 8,9 C 95 % 1013,1 hPa 0,0 l/m 0 min 0 min 0 W/m 12,9 km/h (3 Bft) 100,00 %
25.10.2022 02:38 13,6 C 12,8 C 8,9 C 95 % 1013,1 hPa 0,0 l/m 0 min 0 min 0 W/m 16,1 km/h (3 Bft) 100,00 %
25.10.2022 02:40 13,7 C 12,8 C 8,9 C 95 % 1013,1 hPa 0,0 l/m 0 min 0 min 0 W/m 12,9 km/h (3 Bft) 100,00 %
25.10.2022 02:42 13,7 C 13,3 C 9,4 C 95 % 1013,1 hPa 0,0 l/m 0 min 0 min 0 W/m 19,3 km/h (3 Bft) 100,00 %
25.10.2022 02:44 13,7 C 13,3 C 9,4 C 95 % 1013,1 hPa 0,0 l/m 0 min 0 min 0 W/m 29,0 km/h (5 Bft) 97,87 %
25.10.2022 02:46 13,8 C 13,3 C 9,4 C 95 % 1013,1 hPa 0,0 l/m 0 min 0 min 0 W/m 19,3 km/h (3 Bft) 97,83 %
25.10.2022 02:48 13,8 C 13,3 C 9,4 C 95 % 1013,1 hPa 0,0 l/m 0 min 0 min 0 W/m 12,9 km/h (3 Bft) 97,87 %
25.10.2022 02:50 13,8 C 13,3 C 9,4 C 95 % 1013,0 hPa 0,0 l/m 0 min 0 min 0 W/m 12,9 km/h (3 Bft) 97,87 %
25.10.2022 02:52 13,8 C 13,3 C 9,4 C 95 % 1013,1 hPa 0,0 l/m 0 min 0 min 0 W/m 19,3 km/h (3 Bft) 97,87 %
25.10.2022 02:54 13,9 C 13,3 C 9,4 C 95 % 1013,1 hPa 0,0 l/m 0 min 0 min 0 W/m 16,1 km/h (3 Bft) 97,87 %
25.10.2022 02:56 13,9 C 13,3 C 9,4 C 95 % 1013,1 hPa 0,0 l/m 0 min 0 min 0 W/m 12,9 km/h (3 Bft) 97,87 %
25.10.2022 02:58 13,9 C 13,3 C 9,4 C 95 % 1013,1 hPa 0,0 l/m 0 min 0 min 0 W/m 12,9 km/h (3 Bft) 95,65 %
25.10.2022 03:00 13,9 C 13,3 C 9,4 C 95 % 1013,2 hPa 0,0 l/m 0 min 0 min 0 W/m 16,1 km/h (3 Bft) 97,87 %
25.10.2022 03:02 13,9 C 13,3 C 9,4 C 94 % 1013,2 hPa 0,0 l/m 0 min 0 min 0 W/m 6,4 km/h (2 Bft) 97,87 %
25.10.2022 03:04 13,9 C 13,3 C 9,4 C 94 % 1013,2 hPa 0,0 l/m 0 min 0 min 0 W/m 6,4 km/h (2 Bft) 97,87 %
25.10.2022 03:06 13,9 C 13,3 C 9,4 C 94 % 1013,3 hPa 0,0 l/m 0 min 0 min 0 W/m 9,7 km/h (2 Bft) 98,08 %
25.10.2022 03:08 13,9 C 13,3 C 9,4 C 94 % 1013,3 hPa 0,0 l/m 0 min 0 min 0 W/m 6,4 km/h (2 Bft) 95,12 %
25.10.2022 03:10 13,9 C 13,3 C 9,4 C 94 % 1013,3 hPa 0,0 l/m 0 min 0 min 0 W/m 3,2 km/h (1 Bft) 95,74 %
25.10.2022 03:12 13,9 C 13,3 C 9,4 C 94 % 1013,3 hPa 0,0 l/m 0 min 0 min 0 W/m 12,9 km/h (3 Bft) 93,62 %
25.10.2022 03:14 13,9 C 13,3 C 9,4 C 94 % 1013,3 hPa 0,0 l/m 0 min 0 min 0 W/m 16,1 km/h (3 Bft) 95,74 %
25.10.2022 03:16 13,9 C 13,3 C 9,4 C 94 % 1013,3 hPa 0,0 l/m 0 min 0 min 0 W/m 22,5 km/h (4 Bft) 93,62 %
25.10.2022 03:18 13,9 C 13,3 C 9,4 C 94 % 1013,3 hPa 0,0 l/m 0 min 0 min 0 W/m 6,4 km/h (2 Bft) 95,74 %
25.10.2022 03:20 13,9 C 13,3 C 9,4 C 94 % 1013,3 hPa 0,0 l/m 0 min 0 min 0 W/m 16,1 km/h (3 Bft) 95,65 %
25.10.2022 03:22 13,9 C 13,3 C 9,4 C 94 % 1013,3 hPa 0,0 l/m 0 min 0 min 0 W/m 12,9 km/h (3 Bft) 95,74 %
25.10.2022 03:24 13,9 C 13,3 C 9,4 C 94 % 1013,3 hPa 0,0 l/m 0 min 0 min 0 W/m 12,9 km/h (3 Bft) 95,74 %
25.10.2022 03:26 13,9 C 13,3 C 9,4 C 94 % 1013,3 hPa 0,0 l/m 0 min 0 min 0 W/m 12,9 km/h (3 Bft) 93,62 %
25.10.2022 03:28 13,9 C 13,3 C 9,4 C 94 % 1013,2 hPa 0,0 l/m 0 min 0 min 0 W/m 6,4 km/h (2 Bft) 93,62 %
25.10.2022 03:30 13,9 C 12,8 C 9,4 C 94 % 1013,3 hPa 0,0 l/m 0 min 0 min 0 W/m 9,7 km/h (2 Bft) 95,74 %
25.10.2022 03:32 13,9 C 12,8 C 9,4 C 94 % 1013,3 hPa 0,0 l/m 0 min 0 min 0 W/m 16,1 km/h (3 Bft) 95,65 %
25.10.2022 03:34 13,9 C 12,8 C 9,4 C 94 % 1013,2 hPa 0,0 l/m 0 min 0 min 0 W/m 16,1 km/h (3 Bft) 95,74 %
25.10.2022 03:36 13,9 C 12,8 C 9,4 C 94 % 1013,2 hPa 0,0 l/m 0 min 0 min 0 W/m 12,9 km/h (3 Bft) 93,62 %
25.10.2022 03:38 13,9 C 12,8 C 9,4 C 94 % 1013,3 hPa 0,0 l/m 0 min 0 min 0 W/m 6,4 km/h (2 Bft) 95,74 %
25.10.2022 03:40 13,9 C 12,8 C 9,4 C 94 % 1013,3 hPa 0,0 l/m 0 min 0 min 0 W/m 12,9 km/h (3 Bft) 95,74 %
25.10.2022 03:42 13,9 C 12,8 C 8,9 C 94 % 1013,3 hPa 0,0 l/m 0 min 0 min 0 W/m 12,9 km/h (3 Bft) 95,74 %
25.10.2022 03:44 13,8 C 12,8 C 8,9 C 94 % 1013,4 hPa 0,0 l/m 0 min 0 min 0 W/m 6,4 km/h (2 Bft) 95,65 %
25.10.2022 03:46 13,8 C 12,8 C 8,9 C 94 % 1013,4 hPa 0,0 l/m 0 min 0 min 0 W/m 12,9 km/h (3 Bft) 93,62 %
25.10.2022 03:48 13,8 C 12,8 C 8,9 C 94 % 1013,4 hPa 0,0 l/m 0 min 0 min 0 W/m 9,7 km/h (2 Bft) 95,74 %
25.10.2022 03:50 13,8 C 12,8 C 8,9 C 94 % 1013,4 hPa 0,0 l/m 0 min 0 min 0 W/m 6,4 km/h (2 Bft) 52,27 %
25.10.2022 03:52 13,8 C 12,8 C 8,9 C 94 % 1013,4 hPa 0,0 l/m 0 min 0 min 0 W/m 6,4 km/h (2 Bft) 95,74 %
25.10.2022 03:54 13,7 C 12,8 C 8,9 C 94 % 1013,3 hPa 0,0 l/m 0 min 0 min 0 W/m 12,9 km/h (3 Bft) 95,74 %
25.10.2022 03:56 13,7 C 12,8 C 8,9 C 94 % 1013,3 hPa 0,0 l/m 0 min 0 min 0 W/m 16,1 km/h (3 Bft) 100,00 %
25.10.2022 03:58 13,7 C 12,8 C 8,9 C 94 % 1013,3 hPa 0,0 l/m 0 min 0 min 0 W/m 9,7 km/h (2 Bft) 97,87 %
25.10.2022 04:00 13,7 C 12,8 C 8,9 C 94 % 1013,4 hPa 0,0 l/m 0 min 0 min 0 W/m 6,4 km/h (2 Bft) 100,00 %
25.10.2022 04:02 13,7 C 12,8 C 8,9 C 94 % 1013,4 hPa 0,0 l/m 0 min 0 min 0 W/m 9,7 km/h (2 Bft) 100,00 %
25.10.2022 04:04 13,6 C 12,8 C 8,9 C 94 % 1013,4 hPa 0,0 l/m 0 min 0 min 0 W/m 12,9 km/h (3 Bft) 100,00 %
25.10.2022 04:06 13,6 C 12,8 C 8,9 C 94 % 1013,4 hPa 0,0 l/m 0 min 0 min 0 W/m 16,1 km/h (3 Bft) 98,08 %
25.10.2022 04:08 13,6 C 12,8 C 8,9 C 94 % 1013,4 hPa 0,0 l/m 0 min 0 min 0 W/m 12,9 km/h (3 Bft) 100,00 %
25.10.2022 04:10 13,6 C 12,8 C 8,9 C 94 % 1013,4 hPa 0,0 l/m 0 min 0 min 0 W/m 9,7 km/h (2 Bft) 97,73 %
25.10.2022 04:12 13,6 C 12,8 C 8,9 C 94 % 1013,5 hPa 0,0 l/m 0 min 0 min 0 W/m 6,4 km/h (2 Bft) 97,87 %
25.10.2022 04:14 13,6 C 12,8 C 8,9 C 94 % 1013,5 hPa 0,0 l/m 0 min 0 min 0 W/m 6,4 km/h (2 Bft) 100,00 %
25.10.2022 04:16 13,6 C 12,8 C 8,9 C 94 % 1013,5 hPa 0,0 l/m 0 min 0 min 0 W/m 6,4 km/h (2 Bft) 97,83 %
25.10.2022 04:18 13,6 C 12,8 C 8,9 C 94 % 1013,5 hPa 0,0 l/m 0 min 0 min 0 W/m 12,9 km/h (3 Bft) 97,87 %
25.10.2022 04:20 13,6 C 12,8 C 8,9 C 94 % 1013,5 hPa 0,0 l/m 0 min 0 min 0 W/m 9,7 km/h (2 Bft) 100,00 %
25.10.2022 04:22 13,6 C 12,8 C 8,9 C 94 % 1013,5 hPa 0,0 l/m 0 min 0 min 0 W/m 6,4 km/h (2 Bft) 100,00 %
25.10.2022 04:24 13,6 C 12,8 C 8,9 C 94 % 1013,5 hPa 0,0 l/m 0 min 0 min 0 W/m 19,3 km/h (3 Bft) 100,00 %
25.10.2022 04:26 13,6 C 12,8 C 8,9 C 94 % 1013,5 hPa 0,0 l/m 0 min 0 min 0 W/m 16,1 km/h (3 Bft) 97,83 %
25.10.2022 04:28 13,6 C 12,8 C 9,4 C 94 % 1013,4 hPa 0,0 l/m 0 min 0 min 0 W/m 16,1 km/h (3 Bft) 100,00 %
25.10.2022 04:30 13,6 C 12,8 C 9,4 C 94 % 1013,4 hPa 0,0 l/m 0 min 0 min 0 W/m 16,1 km/h (3 Bft) 100,00 %
25.10.2022 04:32 13,6 C 12,8 C 9,4 C 94 % 1013,5 hPa 0,0 l/m 0 min 0 min 0 W/m 16,1 km/h (3 Bft) 100,00 %
25.10.2022 04:34 13,7 C 12,8 C 9,4 C 94 % 1013,5 hPa 0,0 l/m 0 min 0 min 0 W/m 12,9 km/h (3 Bft) 100,00 %
25.10.2022 04:36 13,7 C 12,8 C 9,4 C 94 % 1013,5 hPa 0,0 l/m 0 min 0 min 0 W/m 16,1 km/h (3 Bft) 100,00 %
25.10.2022 04:38 13,7 C 12,8 C 9,4 C 94 % 1013,4 hPa 0,0 l/m 0 min 0 min 0 W/m 16,1 km/h (3 Bft) 100,00 %
25.10.2022 04:40 13,7 C 12,8 C 9,4 C 94 % 1013,4 hPa 0,0 l/m 0 min 0 min 0 W/m 16,1 km/h (3 Bft) 100,00 %
25.10.2022 04:42 13,7 C 12,8 C 9,4 C 94 % 1013,5 hPa 0,0 l/m 0 min 0 min 0 W/m 12,9 km/h (3 Bft) 100,00 %
25.10.2022 04:44 13,7 C 12,8 C 9,4 C 94 % 1013,6 hPa 0,0 l/m 0 min 0 min 0 W/m 12,9 km/h (3 Bft) 100,00 %
25.10.2022 04:46 13,7 C 12,8 C 9,4 C 94 % 1013,5 hPa 0,0 l/m 0 min 0 min 0 W/m 19,3 km/h (3 Bft) 100,00 %
25.10.2022 04:48 13,8 C 12,8 C 9,4 C 94 % 1013,5 hPa 0,0 l/m 0 min 0 min 0 W/m 16,1 km/h (3 Bft) 100,00 %
25.10.2022 04:50 13,8 C 13,3 C 9,4 C 94 % 1013,6 hPa 0,0 l/m 0 min 0 min 0 W/m 16,1 km/h (3 Bft) 100,00 %
25.10.2022 04:52 13,8 C 13,3 C 9,4 C 94 % 1013,6 hPa 0,0 l/m 0 min 0 min 0 W/m 12,9 km/h (3 Bft) 100,00 %
25.10.2022 04:54 13,8 C 13,3 C 9,4 C 94 % 1013,7 hPa 0,0 l/m 0 min 0 min 0 W/m 16,1 km/h (3 Bft) 100,00 %
25.10.2022 04:56 13,8 C 13,3 C 9,4 C 94 % 1013,6 hPa 0,0 l/m 0 min 0 min 0 W/m 12,9 km/h (3 Bft) 100,00 %
25.10.2022 04:58 13,8 C 13,3 C 9,4 C 94 % 1013,6 hPa 0,0 l/m 0 min 0 min 0 W/m 22,5 km/h (4 Bft) 100,00 %
25.10.2022 05:00 13,8 C 13,3 C 9,4 C 94 % 1013,7 hPa 0,0 l/m 0 min 0 min 0 W/m 16,1 km/h (3 Bft) 100,00 %
25.10.2022 05:02 13,8 C 13,3 C 9,4 C 94 % 1013,7 hPa 0,0 l/m 0 min 0 min 0 W/m 16,1 km/h (3 Bft) 97,83 %
25.10.2022 05:04 13,8 C 13,3 C 9,4 C 94 % 1013,7 hPa 0,0 l/m 0 min 0 min 0 W/m 16,1 km/h (3 Bft) 97,87 %
25.10.2022 05:06 13,9 C 13,3 C 9,4 C 94 % 1013,7 hPa 0,0 l/m 0 min 0 min 0 W/m 16,1 km/h (3 Bft) 100,00 %
25.10.2022 05:08 13,9 C 13,3 C 9,4 C 94 % 1013,8 hPa 0,0 l/m 0 min 0 min 0 W/m 16,1 km/h (3 Bft) 95,74 %
25.10.2022 05:10 13,9 C 13,3 C 10,0 C 94 % 1013,9 hPa 0,0 l/m 0 min 0 min 0 W/m 19,3 km/h (3 Bft) 100,00 %
25.10.2022 05:12 13,9 C 13,3 C 10,0 C 94 % 1013,8 hPa 0,0 l/m 0 min 0 min 0 W/m 16,1 km/h (3 Bft) 95,65 %
25.10.2022 05:14 13,9 C 13,3 C 10,0 C 94 % 1013,8 hPa 0,0 l/m 0 min 0 min 0 W/m 12,9 km/h (3 Bft) 100,00 %
25.10.2022 05:16 13,9 C 13,3 C 10,0 C 94 % 1013,8 hPa 0,0 l/m 0 min 0 min 0 W/m 22,5 km/h (4 Bft) 93,62 %
25.10.2022 05:18 13,9 C 13,3 C 10,0 C 94 % 1013,8 hPa 0,0 l/m 0 min 0 min 0 W/m 12,9 km/h (3 Bft) 95,74 %
25.10.2022 05:20 13,9 C 13,3 C 10,0 C 94 % 1013,7 hPa 0,0 l/m 0 min 0 min 0 W/m 19,3 km/h (3 Bft) 95,74 %
25.10.2022 05:22 13,9 C 13,3 C 10,0 C 94 % 1013,8 hPa 0,0 l/m 0 min 0 min 0 W/m 19,3 km/h (3 Bft) 95,74 %
25.10.2022 05:24 13,9 C 13,3 C 10,0 C 94 % 1013,8 hPa 0,0 l/m 0 min 0 min 0 W/m 25,7 km/h (4 Bft) 95,65 %
25.10.2022 05:26 13,9 C 13,3 C 10,0 C 93 % 1013,8 hPa 0,0 l/m 0 min 0 min 0 W/m 16,1 km/h (3 Bft) 95,74 %
25.10.2022 05:28 13,9 C 13,3 C 10,0 C 93 % 1013,8 hPa 0,0 l/m 0 min 0 min 0 W/m 22,5 km/h (4 Bft) 95,74 %
25.10.2022 05:30 13,9 C 13,3 C 10,0 C 93 % 1013,7 hPa 0,0 l/m 0 min 0 min 0 W/m 19,3 km/h (3 Bft) 95,74 %
25.10.2022 05:32 13,9 C 13,3 C 10,0 C 93 % 1013,8 hPa 0,0 l/m 0 min 0 min 0 W/m 22,5 km/h (4 Bft) 93,62 %
25.10.2022 05:34 13,9 C 13,3 C 10,0 C 93 % 1013,9 hPa 0,0 l/m 0 min 0 min 0 W/m 22,5 km/h (4 Bft) 95,74 %
25.10.2022 05:36 13,9 C 13,3 C 10,0 C 93 % 1013,8 hPa 0,0 l/m 0 min 0 min 0 W/m 12,9 km/h (3 Bft) 95,65 %
25.10.2022 05:38 13,9 C 13,3 C 10,0 C 93 % 1013,8 hPa 0,0 l/m 0 min 0 min 0 W/m 12,9 km/h (3 Bft) 95,74 %
25.10.2022 05:40 13,9 C 12,8 C 10,0 C 93 % 1013,9 hPa 0,0 l/m 0 min 0 min 0 W/m 12,9 km/h (3 Bft) 96,00 %
25.10.2022 05:42 13,9 C 12,8 C 10,0 C 93 % 1013,9 hPa 0,0 l/m 0 min 0 min 0 W/m 19,3 km/h (3 Bft) 91,49 %
25.10.2022 05:44 13,9 C 13,3 C 10,0 C 93 % 1013,9 hPa 0,0 l/m 0 min 0 min 0 W/m 16,1 km/h (3 Bft) 95,74 %
25.10.2022 05:46 13,9 C 12,8 C 10,0 C 93 % 1013,9 hPa 0,0 l/m 0 min 0 min 0 W/m 9,7 km/h (2 Bft) 95,65 %
25.10.2022 05:48 13,9 C 12,8 C 10,0 C 93 % 1014,0 hPa 0,0 l/m 0 min 0 min 0 W/m 16,1 km/h (3 Bft) 97,87 %
25.10.2022 05:50 13,9 C 12,8 C 10,0 C 93 % 1013,9 hPa 0,0 l/m 0 min 0 min 0 W/m 6,4 km/h (2 Bft) 95,74 %
25.10.2022 05:52 13,9 C 12,8 C 10,0 C 93 % 1014,0 hPa 0,0 l/m 0 min 0 min 0 W/m 6,4 km/h (2 Bft) 100,00 %
25.10.2022 05:54 13,9 C 12,8 C 10,0 C 93 % 1014,1 hPa 0,0 l/m 0 min 0 min 0 W/m 9,7 km/h (2 Bft) 97,87 %
25.10.2022 05:56 13,8 C 12,8 C 10,0 C 93 % 1014,1 hPa 0,0 l/m 0 min 0 min 0 W/m 6,4 km/h (2 Bft) 95,74 %
25.10.2022 05:58 13,8 C 12,8 C 10,0 C 93 % 1014,1 hPa 0,0 l/m 0 min 0 min 0 W/m 19,3 km/h (3 Bft) 97,83 %
25.10.2022 06:00 13,8 C 12,8 C 10,0 C 93 % 1014,1 hPa 0,0 l/m 0 min 0 min 0 W/m 9,7 km/h (2 Bft) 97,87 %
25.10.2022 06:02 13,8 C 12,8 C 10,0 C 93 % 1014,1 hPa 0,0 l/m 0 min 0 min 0 W/m 16,1 km/h (3 Bft) 97,87 %
25.10.2022 06:04 13,8 C 12,8 C 10,0 C 93 % 1014,1 hPa 0,0 l/m 0 min 0 min 0 W/m 6,4 km/h (2 Bft) 100,00 %
25.10.2022 06:08 13,8 C 12,8 C 10,0 C 93 % 1014,2 hPa 0,0 l/m 0 min 0 min 0 W/m 16,1 km/h (3 Bft) 97,87 %
25.10.2022 06:10 13,8 C 12,8 C 10,0 C 93 % 1014,2 hPa 0,0 l/m 0 min 0 min 0 W/m 16,1 km/h (3 Bft) 95,74 %
25.10.2022 06:12 13,8 C 12,8 C 10,0 C 93 % 1014,2 hPa 0,0 l/m 0 min 0 min 0 W/m 9,7 km/h (2 Bft) 95,74 %
25.10.2022 06:14 13,8 C 12,8 C 10,0 C 93 % 1014,2 hPa 0,0 l/m 0 min 0 min 0 W/m 12,9 km/h (3 Bft) 97,83 %
25.10.2022 06:16 13,8 C 12,8 C 10,0 C 93 % 1014,1 hPa 0,0 l/m 0 min 0 min 0 W/m 9,7 km/h (2 Bft) 95,74 %
25.10.2022 06:18 13,8 C 12,8 C 10,0 C 94 % 1014,2 hPa 0,0 l/m 0 min 0 min 0 W/m 12,9 km/h (3 Bft) 97,87 %
25.10.2022 06:20 13,8 C 12,8 C 10,0 C 94 % 1014,2 hPa 0,0 l/m 0 min 0 min 0 W/m 16,1 km/h (3 Bft) 97,87 %
25.10.2022 06:22 13,8 C 12,8 C 10,0 C 94 % 1014,2 hPa 0,0 l/m 0 min 0 min 0 W/m 16,1 km/h (3 Bft) 93,62 %
25.10.2022 06:24 13,8 C 12,8 C 10,0 C 94 % 1014,3 hPa 0,0 l/m 0 min 0 min 0 W/m 16,1 km/h (3 Bft) 97,87 %
25.10.2022 06:26 13,8 C 12,8 C 10,0 C 94 % 1014,3 hPa 0,0 l/m 0 min 0 min 0 W/m 12,9 km/h (3 Bft) 97,83 %
25.10.2022 06:28 13,7 C 12,8 C 10,0 C 94 % 1014,3 hPa 0,0 l/m 0 min 0 min 0 W/m 16,1 km/h (3 Bft) 97,87 %
25.10.2022 06:30 13,7 C 12,8 C 10,0 C 94 % 1014,4 hPa 0,0 l/m 0 min 0 min 0 W/m 6,4 km/h (2 Bft) 97,87 %
25.10.2022 06:32 13,7 C 12,8 C 10,0 C 94 % 1014,4 hPa 0,0 l/m 0 min 0 min 0 W/m 6,4 km/h (2 Bft) 97,87 %
25.10.2022 06:34 13,7 C 12,8 C 10,0 C 94 % 1014,4 hPa 0,0 l/m 0 min 0 min 0 W/m 9,7 km/h (2 Bft) 95,74 %
25.10.2022 06:36 13,7 C 12,8 C 10,0 C 94 % 1014,4 hPa 0,0 l/m 0 min 0 min 0 W/m 12,9 km/h (3 Bft) 97,87 %
25.10.2022 06:38 13,7 C 12,8 C 10,0 C 94 % 1014,4 hPa 0,0 l/m 0 min 0 min 0 W/m 6,4 km/h (2 Bft) 95,65 %
25.10.2022 06:40 13,7 C 12,8 C 10,0 C 94 % 1014,3 hPa 0,0 l/m 0 min 0 min 0 W/m 12,9 km/h (3 Bft) 55,56 %
25.10.2022 06:42 13,7 C 12,8 C 10,0 C 94 % 1014,4 hPa 0,0 l/m 0 min 0 min 0 W/m 12,9 km/h (3 Bft) 83,87 %
25.10.2022 06:44 13,7 C 12,8 C 10,0 C 94 % 1014,3 hPa 0,0 l/m 0 min 0 min 0 W/m 6,4 km/h (2 Bft) 95,74 %
25.10.2022 06:46 13,7 C 12,8 C 10,0 C 94 % 1014,3 hPa 0,0 l/m 0 min 0 min 0 W/m 6,4 km/h (2 Bft) 97,87 %
25.10.2022 06:48 13,7 C 12,8 C 10,0 C 94 % 1014,3 hPa 0,0 l/m 0 min 2 min 0 W/m 12,9 km/h (3 Bft) 97,87 %
25.10.2022 06:50 13,7 C 12,8 C 9,4 C 94 % 1014,3 hPa 0,0 l/m 0 min 0 min 0 W/m 12,9 km/h (3 Bft) 97,87 %
25.10.2022 06:52 13,7 C 12,8 C 10,0 C 94 % 1014,3 hPa 0,0 l/m 0 min 2 min 0 W/m 12,9 km/h (3 Bft) 97,87 %
25.10.2022 06:54 13,7 C 12,8 C 10,0 C 94 % 1014,3 hPa 0,0 l/m 0 min 2 min 0 W/m 12,9 km/h (3 Bft) 100,00 %
25.10.2022 06:56 13,7 C 12,8 C 10,0 C 94 % 1014,3 hPa 0,0 l/m 0 min 0 min 0 W/m 22,5 km/h (4 Bft) 100,00 %
25.10.2022 06:58 13,7 C 12,8 C 10,0 C 94 % 1014,3 hPa 0,0 l/m 0 min 0 min 0 W/m 12,9 km/h (3 Bft) 97,87 %
25.10.2022 07:00 13,7 C 12,8 C 10,0 C 94 % 1014,4 hPa 0,0 l/m 0 min 0 min 0 W/m 6,4 km/h (2 Bft) 100,00 %
25.10.2022 07:02 13,7 C 12,8 C 10,0 C 94 % 1014,4 hPa 0,0 l/m 0 min 0 min 0 W/m 12,9 km/h (3 Bft) 97,87 %
25.10.2022 07:04 13,7 C 12,8 C 10,0 C 94 % 1014,4 hPa 0,0 l/m 0 min 0 min 0 W/m 9,7 km/h (2 Bft) 100,00 %
25.10.2022 07:06 13,7 C 12,8 C 10,0 C 94 % 1014,4 hPa 0,0 l/m 0 min 0 min 0 W/m 6,4 km/h (2 Bft) 98,28 %
25.10.2022 07:08 13,7 C 12,8 C 10,0 C 94 % 1014,4 hPa 0,0 l/m 0 min 0 min 0 W/m 6,4 km/h (2 Bft) 100,00 %
25.10.2022 07:10 13,7 C 12,8 C 10,0 C 94 % 1014,4 hPa 0,0 l/m 0 min 0 min 0 W/m 9,7 km/h (2 Bft) 100,00 %
25.10.2022 07:12 13,6 C 12,8 C 10,0 C 94 % 1014,4 hPa 0,0 l/m 0 min 0 min 0 W/m 16,1 km/h (3 Bft) 97,87 %
25.10.2022 07:14 13,6 C 12,8 C 10,0 C 94 % 1014,4 hPa 0,0 l/m 0 min 0 min 0 W/m 9,7 km/h (2 Bft) 97,87 %
25.10.2022 07:16 13,6 C 12,8 C 10,0 C 94 % 1014,5 hPa 0,0 l/m 0 min 0 min 0 W/m 6,4 km/h (2 Bft) 97,83 %
25.10.2022 07:18 13,6 C 12,8 C 10,0 C 94 % 1014,5 hPa 0,0 l/m 0 min 0 min 0 W/m 12,9 km/h (3 Bft) 97,87 %
25.10.2022 07:20 13,6 C 12,8 C 10,0 C 94 % 1014,5 hPa 0,0 l/m 0 min 0 min 0 W/m 3,2 km/h (1 Bft) 95,74 %
25.10.2022 07:22 13,6 C 12,8 C 10,0 C 94 % 1014,5 hPa 0,0 l/m 0 min 0 min 0 W/m 6,4 km/h (2 Bft) 97,87 %
25.10.2022 07:24 13,6 C 12,8 C 10,0 C 94 % 1014,5 hPa 0,0 l/m 0 min 0 min 0 W/m 12,9 km/h (3 Bft) 97,87 %
25.10.2022 07:26 13,6 C 12,8 C 10,0 C 94 % 1014,6 hPa 0,0 l/m 0 min 0 min 0 W/m 6,4 km/h (2 Bft) 97,87 %
25.10.2022 07:28 13,6 C 12,8 C 10,0 C 94 % 1014,5 hPa 0,0 l/m 0 min 0 min 0 W/m 0,0 km/h (0 Bft) 97,87 %
25.10.2022 07:30 13,6 C 12,8 C 10,0 C 94 % 1014,6 hPa 0,0 l/m 0 min 0 min 0 W/m 6,4 km/h (2 Bft) 97,83 %
25.10.2022 07:32 13,6 C 12,8 C 9,4 C 94 % 1014,6 hPa 0,0 l/m 0 min 0 min 0 W/m 6,4 km/h (2 Bft) 95,74 %
25.10.2022 07:34 13,6 C 12,8 C 9,4 C 94 % 1014,7 hPa 0,0 l/m 0 min 0 min 0 W/m 3,2 km/h (1 Bft) 97,87 %
25.10.2022 07:36 13,5 C 12,8 C 9,4 C 94 % 1014,7 hPa 0,0 l/m 0 min 0 min 0 W/m 9,7 km/h (2 Bft) 98,28 %
25.10.2022 07:38 13,5 C 12,8 C 9,4 C 94 % 1014,7 hPa 0,0 l/m 0 min 0 min 0 W/m 12,9 km/h (3 Bft) 97,22 %
25.10.2022 07:40 13,5 C 12,8 C 9,4 C 94 % 1014,7 hPa 0,0 l/m 0 min 0 min 0 W/m 6,4 km/h (2 Bft) 98,15 %
25.10.2022 07:42 13,4 C 12,2 C 9,4 C 94 % 1014,6 hPa 0,0 l/m 0 min 0 min 0 W/m 6,4 km/h (2 Bft) 97,87 %
25.10.2022 07:44 13,4 C 12,2 C 9,4 C 94 % 1014,7 hPa 0,0 l/m 0 min 0 min 0 W/m 6,4 km/h (2 Bft) 100,00 %
25.10.2022 07:46 13,4 C 12,2 C 9,4 C 94 % 1014,8 hPa 0,0 l/m 0 min 0 min 0 W/m 3,2 km/h (1 Bft) 97,83 %
25.10.2022 07:48 13,4 C 12,2 C 9,4 C 94 % 1014,8 hPa 0,0 l/m 0 min 0 min 0 W/m 6,4 km/h (2 Bft) 97,87 %
25.10.2022 07:50 13,4 C 12,2 C 9,4 C 94 % 1014,8 hPa 0,0 l/m 0 min 0 min 0 W/m 3,2 km/h (1 Bft) 93,62 %
25.10.2022 07:52 13,3 C 12,2 C 9,4 C 94 % 1014,8 hPa 0,0 l/m 0 min 0 min 0 W/m 3,2 km/h (1 Bft) 100,00 %
25.10.2022 07:54 13,3 C 12,2 C 9,4 C 94 % 1014,8 hPa 0,0 l/m 0 min 0 min 0 W/m 6,4 km/h (2 Bft) 100,00 %
25.10.2022 07:56 13,3 C 12,2 C 9,4 C 94 % 1014,9 hPa 0,0 l/m 0 min 0 min 0 W/m 6,4 km/h (2 Bft) 100,00 %
25.10.2022 07:58 13,3 C 12,2 C 9,4 C 94 % 1015,0 hPa 0,0 l/m 0 min 0 min 0 W/m 3,2 km/h (1 Bft) 97,87 %
25.10.2022 08:00 13,2 C 12,2 C 9,4 C 94 % 1015,0 hPa 0,0 l/m 0 min 0 min 0 W/m 6,4 km/h (2 Bft) 95,74 %
25.10.2022 08:02 13,2 C 12,2 C 9,4 C 94 % 1015,0 hPa 0,0 l/m 0 min 0 min 0 W/m 6,4 km/h (2 Bft) 98,00 %
25.10.2022 08:04 13,2 C 12,2 C 9,4 C 94 % 1015,0 hPa 0,0 l/m 0 min 0 min 0 W/m 9,7 km/h (2 Bft) 97,87 %
25.10.2022 08:06 13,2 C 12,2 C 9,4 C 94 % 1015,1 hPa 0,0 l/m 0 min 0 min 0 W/m 3,2 km/h (1 Bft) 95,74 %
25.10.2022 08:08 13,1 C 12,2 C 9,4 C 94 % 1015,1 hPa 0,0 l/m 0 min 0 min 0 W/m 6,4 km/h (2 Bft) 97,83 %
25.10.2022 08:10 13,1 C 12,2 C 9,4 C 94 % 1015,1 hPa 0,0 l/m 0 min 0 min 0 W/m 6,4 km/h (2 Bft) 97,96 %
25.10.2022 08:12 13,1 C 12,2 C 9,4 C 94 % 1015,1 hPa 0,0 l/m 0 min 0 min 0 W/m 12,9 km/h (3 Bft) 95,65 %
25.10.2022 08:14 13,1 C 12,2 C 9,4 C 95 % 1015,1 hPa 0,0 l/m 0 min 0 min 0 W/m 3,2 km/h (1 Bft) 97,87 %
25.10.2022 08:16 13,1 C 12,2 C 8,9 C 95 % 1015,1 hPa 0,0 l/m 0 min 0 min 0 W/m 3,2 km/h (1 Bft) 97,87 %
25.10.2022 08:18 13,0 C 11,7 C 8,9 C 95 % 1015,2 hPa 0,0 l/m 0 min 0 min 0 W/m 6,4 km/h (2 Bft) 97,87 %
25.10.2022 08:20 13,0 C 11,7 C 8,9 C 94 % 1015,2 hPa 0,0 l/m 0 min 0 min 0 W/m 3,2 km/h (1 Bft) 97,87 %
25.10.2022 08:22 13,0 C 11,7 C 8,9 C 94 % 1015,2 hPa 0,0 l/m 0 min 0 min 0 W/m 6,4 km/h (2 Bft) 97,87 %
25.10.2022 08:24 12,9 C 11,7 C 8,9 C 94 % 1015,1 hPa 0,0 l/m 0 min 0 min 5 W/m 9,7 km/h (2 Bft) 97,83 %
25.10.2022 08:26 12,9 C 12,2 C 8,9 C 95 % 1015,2 hPa 0,0 l/m 0 min 0 min 5 W/m 12,9 km/h (3 Bft) 97,87 %
25.10.2022 08:28 12,9 C 11,7 C 8,9 C 95 % 1015,2 hPa 0,0 l/m 0 min 0 min 6 W/m 3,2 km/h (1 Bft) 95,74 %
25.10.2022 08:30 12,9 C 11,7 C 8,9 C 95 % 1015,2 hPa 0,0 l/m 0 min 0 min 7 W/m 3,2 km/h (1 Bft) 97,87 %
25.10.2022 08:32 12,9 C 11,7 C 8,9 C 95 % 1015,2 hPa 0,0 l/m 0 min 0 min 7 W/m 3,2 km/h (1 Bft) 93,62 %
25.10.2022 08:34 12,9 C 11,7 C 8,9 C 95 % 1015,3 hPa 0,0 l/m 0 min 0 min 9 W/m 9,7 km/h (2 Bft) 97,87 %
25.10.2022 08:36 12,9 C 11,7 C 8,9 C 95 % 1015,3 hPa 0,0 l/m 0 min 0 min 9 W/m 0,0 km/h (0 Bft) 97,83 %
25.10.2022 08:38 12,8 C 11,7 C 8,9 C 95 % 1015,4 hPa 0,0 l/m 0 min 0 min 11 W/m 0,0 km/h (0 Bft) 97,87 %
25.10.2022 08:40 12,8 C 11,7 C 8,9 C 95 % 1015,4 hPa 0,0 l/m 0 min 0 min 12 W/m 0,0 km/h (0 Bft) 97,14 %
25.10.2022 08:42 12,8 C 12,2 C 8,9 C 95 % 1015,5 hPa 0,0 l/m 0 min 0 min 14 W/m 9,7 km/h (2 Bft) 100,00 %
25.10.2022 08:44 12,8 C 12,2 C 8,9 C 95 % 1015,4 hPa 0,0 l/m 0 min 0 min 14 W/m 12,9 km/h (3 Bft) 97,87 %
25.10.2022 08:46 12,8 C 12,2 C 8,9 C 95 % 1015,5 hPa 0,0 l/m 0 min 0 min 14 W/m 9,7 km/h (2 Bft) 100,00 %
25.10.2022 08:48 12,8 C 12,2 C 9,4 C 95 % 1015,4 hPa 0,0 l/m 0 min 0 min 14 W/m 9,7 km/h (2 Bft) 100,00 %
25.10.2022 08:50 12,8 C 12,2 C 9,4 C 95 % 1015,5 hPa 0,0 l/m 0 min 0 min 14 W/m 9,7 km/h (2 Bft) 100,00 %
25.10.2022 08:52 12,8 C 12,2 C 9,4 C 95 % 1015,6 hPa 0,0 l/m 0 min 0 min 14 W/m 12,9 km/h (3 Bft) 100,00 %
25.10.2022 08:54 12,8 C 12,2 C 8,9 C 95 % 1015,6 hPa 0,0 l/m 0 min 0 min 15 W/m 6,4 km/h (2 Bft) 100,00 %
25.10.2022 08:56 12,8 C 12,2 C 8,9 C 95 % 1015,6 hPa 0,0 l/m 0 min 0 min 16 W/m 9,7 km/h (2 Bft) 100,00 %
25.10.2022 08:58 12,8 C 12,2 C 8,9 C 95 % 1015,7 hPa 0,0 l/m 0 min 0 min 18 W/m 9,7 km/h (2 Bft) 100,00 %
25.10.2022 09:00 12,8 C 12,2 C 8,9 C 95 % 1015,7 hPa 0,0 l/m 0 min 0 min 18 W/m 6,4 km/h (2 Bft) 100,00 %
25.10.2022 09:02 12,8 C 12,2 C 8,9 C 95 % 1015,7 hPa 0,0 l/m 0 min 0 min 20 W/m 3,2 km/h (1 Bft) 97,83 %
25.10.2022 09:04 12,8 C 12,2 C 8,9 C 95 % 1015,8 hPa 0,0 l/m 0 min 0 min 21 W/m 19,3 km/h (3 Bft) 95,74 %
25.10.2022 09:06 12,8 C 12,2 C 9,4 C 95 % 1015,8 hPa 0,0 l/m 0 min 0 min 22 W/m 6,4 km/h (2 Bft) 96,61 %
25.10.2022 09:08 12,8 C 12,2 C 9,4 C 95 % 1015,9 hPa 0,0 l/m 0 min 0 min 23 W/m 9,7 km/h (2 Bft) 95,24 %
25.10.2022 09:10 12,8 C 12,2 C 9,4 C 95 % 1016,0 hPa 0,0 l/m 0 min 0 min 23 W/m 16,1 km/h (3 Bft) 94,00 %
25.10.2022 09:12 12,8 C 12,2 C 9,4 C 95 % 1015,9 hPa 0,0 l/m 0 min 0 min 24 W/m 12,9 km/h (3 Bft) 95,74 %
25.10.2022 09:14 12,8 C 12,2 C 9,4 C 95 % 1016,0 hPa 0,0 l/m 0 min 0 min 26 W/m 16,1 km/h (3 Bft) 95,74 %
25.10.2022 09:16 12,9 C 12,2 C 9,4 C 96 % 1016,0 hPa 0,0 l/m 0 min 0 min 26 W/m 16,1 km/h (3 Bft) 93,62 %
25.10.2022 09:18 12,9 C 12,2 C 9,4 C 96 % 1016,0 hPa 0,0 l/m 0 min 0 min 25 W/m 6,4 km/h (2 Bft) 95,65 %
25.10.2022 09:20 12,9 C 12,2 C 9,4 C 96 % 1016,0 hPa 0,0 l/m 0 min 0 min 25 W/m 9,7 km/h (2 Bft) 95,74 %
25.10.2022 09:22 12,9 C 12,2 C 9,4 C 96 % 1016,0 hPa 0,0 l/m 0 min 0 min 25 W/m 19,3 km/h (3 Bft) 95,74 %
25.10.2022 09:24 12,9 C 12,2 C 9,4 C 96 % 1016,0 hPa 0,0 l/m 0 min 0 min 29 W/m 12,9 km/h (3 Bft) 93,62 %
25.10.2022 09:26 12,9 C 12,2 C 9,4 C 96 % 1016,0 hPa 0,0 l/m 0 min 0 min 32 W/m 12,9 km/h (3 Bft) 91,49 %
25.10.2022 09:28 12,9 C 12,8 C 9,4 C 96 % 1016,1 hPa 0,0 l/m 0 min 0 min 39 W/m 19,3 km/h (3 Bft) 93,62 %
25.10.2022 09:30 13,0 C 12,8 C 9,4 C 95 % 1016,0 hPa 0,0 l/m 0 min 0 min 42 W/m 12,9 km/h (3 Bft) 95,65 %
25.10.2022 09:32 13,0 C 12,8 C 9,4 C 95 % 1016,1 hPa 0,0 l/m 0 min 0 min 40 W/m 12,9 km/h (3 Bft) 93,62 %
25.10.2022 09:34 13,1 C 12,8 C 9,4 C 95 % 1016,1 hPa 0,0 l/m 0 min 0 min 41 W/m 16,1 km/h (3 Bft) 93,62 %
25.10.2022 09:36 13,1 C 12,8 C 9,4 C 95 % 1016,1 hPa 0,0 l/m 0 min 0 min 38 W/m 16,1 km/h (3 Bft) 97,87 %
25.10.2022 09:38 13,1 C 12,8 C 9,4 C 95 % 1016,0 hPa 0,0 l/m 0 min 0 min 42 W/m 16,1 km/h (3 Bft) 97,87 %
25.10.2022 09:40 13,1 C 12,8 C 9,4 C 95 % 1016,1 hPa 0,0 l/m 0 min 0 min 49 W/m 16,1 km/h (3 Bft) 97,92 %
25.10.2022 09:42 13,1 C 12,8 C 10,0 C 95 % 1016,1 hPa 0,0 l/m 0 min 0 min 52 W/m 22,5 km/h (4 Bft) 97,87 %
25.10.2022 09:44 13,1 C 12,8 C 10,0 C 95 % 1016,1 hPa 0,0 l/m 0 min 0 min 47 W/m 12,9 km/h (3 Bft) 97,87 %
25.10.2022 09:46 13,2 C 12,8 C 10,0 C 95 % 1016,1 hPa 0,0 l/m 0 min 0 min 53 W/m 12,9 km/h (3 Bft) 95,65 %
25.10.2022 09:48 13,2 C 12,8 C 10,0 C 95 % 1016,1 hPa 0,0 l/m 0 min 0 min 53 W/m 12,9 km/h (3 Bft) 95,74 %
25.10.2022 09:50 13,2 C 12,8 C 10,0 C 95 % 1016,1 hPa 0,0 l/m 0 min 0 min 50 W/m 9,7 km/h (2 Bft) 95,74 %
25.10.2022 09:52 13,3 C 12,8 C 10,0 C 95 % 1016,1 hPa 0,0 l/m 0 min 0 min 49 W/m 12,9 km/h (3 Bft) 100,00 %
25.10.2022 09:54 13,3 C 12,8 C 10,0 C 95 % 1016,2 hPa 0,0 l/m 0 min 0 min 34 W/m 12,9 km/h (3 Bft) 100,00 %
25.10.2022 09:56 13,3 C 12,8 C 10,0 C 95 % 1016,1 hPa 0,0 l/m 0 min 0 min 32 W/m 12,9 km/h (3 Bft) 97,87 %
25.10.2022 09:58 13,3 C 12,8 C 10,0 C 95 % 1016,2 hPa 0,0 l/m 0 min 0 min 40 W/m 22,5 km/h (4 Bft) 97,83 %
25.10.2022 10:00 13,4 C 13,3 C 10,0 C 95 % 1016,3 hPa 0,0 l/m 0 min 0 min 36 W/m 19,3 km/h (3 Bft) 100,00 %
25.10.2022 10:02 13,4 C 13,3 C 10,0 C 95 % 1016,2 hPa 0,0 l/m 0 min 0 min 38 W/m 19,3 km/h (3 Bft) 100,00 %
25.10.2022 10:04 13,4 C 13,3 C 10,0 C 95 % 1016,2 hPa 0,0 l/m 0 min 0 min 40 W/m 12,9 km/h (3 Bft) 100,00 %
25.10.2022 10:06 13,5 C 13,3 C 10,0 C 95 % 1016,2 hPa 0,0 l/m 0 min 0 min 41 W/m 16,1 km/h (3 Bft) 97,87 %
25.10.2022 10:08 13,6 C 13,3 C 10,0 C 95 % 1016,2 hPa 0,0 l/m 0 min 0 min 49 W/m 12,9 km/h (3 Bft) 100,00 %
25.10.2022 10:10 13,6 C 13,3 C 10,0 C 94 % 1016,2 hPa 0,0 l/m 0 min 0 min 64 W/m 19,3 km/h (3 Bft) 100,00 %
25.10.2022 10:12 13,7 C 13,9 C 10,6 C 94 % 1016,2 hPa 0,0 l/m 0 min 0 min 85 W/m 12,9 km/h (3 Bft) 100,00 %
25.10.2022 10:14 13,8 C 13,9 C 10,6 C 94 % 1016,2 hPa 0,0 l/m 0 min 0 min 112 W/m 12,9 km/h (3 Bft) 100,00 %
25.10.2022 10:16 13,8 C 13,9 C 10,6 C 94 % 1016,3 hPa 0,0 l/m 0 min 0 min 122 W/m 12,9 km/h (3 Bft) 97,87 %
25.10.2022 10:18 13,9 C 13,9 C 10,6 C 94 % 1016,3 hPa 0,0 l/m 0 min 0 min 83 W/m 19,3 km/h (3 Bft) 97,87 %
25.10.2022 10:20 14,0 C 13,9 C 10,6 C 94 % 1016,3 hPa 0,0 l/m 0 min 0 min 97 W/m 12,9 km/h (3 Bft) 100,00 %
25.10.2022 10:22 14,1 C 14,4 C 10,6 C 94 % 1016,2 hPa 0,0 l/m 0 min 0 min 99 W/m 16,1 km/h (3 Bft) 100,00 %
25.10.2022 10:24 14,2 C 14,4 C 10,6 C 94 % 1016,3 hPa 0,0 l/m 0 min 0 min 76 W/m 19,3 km/h (3 Bft) 91,49 %
25.10.2022 10:26 14,2 C 14,4 C 10,6 C 93 % 1016,3 hPa 0,0 l/m 0 min 0 min 63 W/m 22,5 km/h (4 Bft) 97,87 %
25.10.2022 10:28 14,3 C 13,9 C 10,6 C 93 % 1016,3 hPa 0,0 l/m 0 min 0 min 49 W/m 16,1 km/h (3 Bft) 100,00 %
25.10.2022 10:30 14,3 C 13,9 C 10,6 C 93 % 1016,3 hPa 0,0 l/m 0 min 0 min 41 W/m 12,9 km/h (3 Bft) 100,00 %
25.10.2022 10:32 14,3 C 13,9 C 10,6 C 92 % 1016,4 hPa 0,0 l/m 0 min 0 min 48 W/m 16,1 km/h (3 Bft) 97,87 %
25.10.2022 10:34 14,3 C 13,9 C 10,6 C 92 % 1016,3 hPa 0,0 l/m 0 min 0 min 53 W/m 12,9 km/h (3 Bft) 97,83 %
25.10.2022 10:36 14,3 C 13,9 C 10,6 C 92 % 1016,4 hPa 0,0 l/m 0 min 0 min 79 W/m 16,1 km/h (3 Bft) 100,00 %
25.10.2022 10:38 14,3 C 14,4 C 10,6 C 92 % 1016,3 hPa 0,0 l/m 0 min 0 min 59 W/m 12,9 km/h (3 Bft) 97,87 %
25.10.2022 10:40 14,3 C 14,4 C 10,6 C 92 % 1016,3 hPa 0,0 l/m 0 min 0 min 92 W/m 12,9 km/h (3 Bft) 95,74 %
25.10.2022 10:42 14,4 C 14,4 C 10,6 C 92 % 1016,3 hPa 0,0 l/m 0 min 0 min 81 W/m 9,7 km/h (2 Bft) 93,62 %
25.10.2022 10:44 14,4 C 14,4 C 11,1 C 92 % 1016,3 hPa 0,0 l/m 0 min 0 min 104 W/m 19,3 km/h (3 Bft) 93,62 %
25.10.2022 10:46 14,5 C 14,4 C 11,1 C 92 % 1016,3 hPa 0,0 l/m 0 min 0 min 78 W/m 25,7 km/h (4 Bft) 95,65 %
25.10.2022 10:48 14,6 C 14,4 C 11,1 C 91 % 1016,3 hPa 0,0 l/m 0 min 0 min 58 W/m 19,3 km/h (3 Bft) 93,62 %
25.10.2022 10:50 14,6 C 15,0 C 11,1 C 91 % 1016,3 hPa 0,0 l/m 0 min 0 min 60 W/m 22,5 km/h (4 Bft) 95,74 %
25.10.2022 10:52 14,7 C 15,0 C 11,1 C 91 % 1016,3 hPa 0,0 l/m 0 min 0 min 107 W/m 22,5 km/h (4 Bft) 97,87 %
25.10.2022 10:54 14,7 C 15,0 C 11,1 C 90 % 1016,4 hPa 0,0 l/m 2 min 0 min 193 W/m 12,9 km/h (3 Bft) 97,87 %
25.10.2022 10:56 14,8 C 16,1 C 11,1 C 91 % 1016,3 hPa 0,0 l/m 0 min 0 min 88 W/m 32,2 km/h (5 Bft) 97,87 %
25.10.2022 10:58 14,8 C 17,2 C 11,1 C 90 % 1016,3 hPa 0,0 l/m 0 min 0 min 147 W/m 16,1 km/h (3 Bft) 95,83 %
25.10.2022 11:00 14,9 C 17,2 C 11,1 C 90 % 1016,4 hPa 0,0 l/m 2 min 0 min 269 W/m 29,0 km/h (5 Bft) 95,74 %
25.10.2022 11:02 14,9 C 16,7 C 11,1 C 90 % 1016,4 hPa 0,0 l/m 2 min 0 min 202 W/m 12,9 km/h (3 Bft) 95,74 %
25.10.2022 11:04 14,9 C 16,7 C 11,1 C 89 % 1016,4 hPa 0,0 l/m 2 min 0 min 264 W/m 9,7 km/h (2 Bft) 95,65 %
25.10.2022 11:06 15,1 C 17,2 C 11,1 C 89 % 1016,5 hPa 0,0 l/m 2 min 0 min 215 W/m 6,4 km/h (2 Bft) 89,36 %
25.10.2022 11:08 15,1 C 18,3 C 11,7 C 90 % 1016,5 hPa 0,0 l/m 2 min 0 min 264 W/m 12,9 km/h (3 Bft) 85,11 %
25.10.2022 11:10 15,2 C 17,8 C 11,7 C 89 % 1016,5 hPa 0,0 l/m 2 min 0 min 329 W/m 16,1 km/h (3 Bft) 93,62 %
25.10.2022 11:12 15,2 C 17,2 C 11,7 C 88 % 1016,5 hPa 0,0 l/m 2 min 0 min 202 W/m 16,1 km/h (3 Bft) 93,62 %
25.10.2022 11:14 15,2 C 18,3 C 11,7 C 88 % 1016,5 hPa 0,0 l/m 2 min 0 min 236 W/m 22,5 km/h (4 Bft) 89,36 %
25.10.2022 11:16 15,3 C 19,4 C 11,7 C 88 % 1016,6 hPa 0,0 l/m 2 min 0 min 274 W/m 19,3 km/h (3 Bft) 91,30 %
25.10.2022 11:18 15,3 C 20,6 C 11,7 C 88 % 1016,6 hPa 0,0 l/m 2 min 0 min 276 W/m 19,3 km/h (3 Bft) 97,87 %
25.10.2022 11:20 15,4 C 22,2 C 11,7 C 88 % 1016,6 hPa 0,0 l/m 2 min 0 min 187 W/m 12,9 km/h (3 Bft) 93,62 %
25.10.2022 11:22 15,5 C 23,3 C 11,7 C 88 % 1016,6 hPa 0,0 l/m 2 min 0 min 192 W/m 12,9 km/h (3 Bft) 93,62 %
25.10.2022 11:24 15,6 C 23,3 C 12,2 C 88 % 1016,7 hPa 0,0 l/m 0 min 0 min 163 W/m 12,9 km/h (3 Bft) 95,74 %
25.10.2022 11:26 15,7 C 22,8 C 12,2 C 87 % 1016,7 hPa 0,0 l/m 0 min 0 min 165 W/m 16,1 km/h (3 Bft) 95,74 %
25.10.2022 11:28 15,8 C 22,2 C 12,2 C 87 % 1016,7 hPa 0,0 l/m 2 min 0 min 220 W/m 25,7 km/h (4 Bft) 95,65 %
25.10.2022 11:30 15,8 C 21,7 C 12,2 C 86 % 1016,7 hPa 0,0 l/m 2 min 0 min 209 W/m 16,1 km/h (3 Bft) 95,74 %
25.10.2022 11:32 15,8 C 20,0 C 12,2 C 86 % 1016,8 hPa 0,0 l/m 0 min 0 min 150 W/m 29,0 km/h (5 Bft) 95,74 %
25.10.2022 11:34 15,8 C 18,9 C 12,2 C 85 % 1016,7 hPa 0,0 l/m 0 min 0 min 144 W/m 29,0 km/h (5 Bft) 95,74 %
25.10.2022 11:36 15,8 C 19,4 C 12,2 C 85 % 1016,8 hPa 0,0 l/m 0 min 0 min 136 W/m 19,3 km/h (3 Bft) 95,74 %
25.10.2022 11:38 15,8 C 18,3 C 12,2 C 85 % 1016,7 hPa 0,0 l/m 0 min 0 min 95 W/m 19,3 km/h (3 Bft) 97,87 %
25.10.2022 11:40 15,7 C 18,3 C 12,2 C 85 % 1016,8 hPa 0,0 l/m 0 min 0 min 97 W/m 19,3 km/h (3 Bft) 95,65 %
25.10.2022 11:42 15,7 C 17,8 C 12,2 C 85 % 1016,8 hPa 0,0 l/m 0 min 0 min 195 W/m 25,7 km/h (4 Bft) 95,74 %
25.10.2022 11:44 15,7 C 18,3 C 12,2 C 85 % 1016,9 hPa 0,0 l/m 2 min 0 min 239 W/m 19,3 km/h (3 Bft) 95,74 %
25.10.2022 11:46 15,6 C 17,2 C 12,8 C 85 % 1016,8 hPa 0,0 l/m 2 min 0 min 301 W/m 29,0 km/h (5 Bft) 91,49 %
25.10.2022 11:48 15,7 C 17,2 C 12,8 C 85 % 1016,9 hPa 0,0 l/m 2 min 0 min 204 W/m 19,3 km/h (3 Bft) 82,98 %
25.10.2022 11:50 15,7 C 16,7 C 12,8 C 85 % 1016,8 hPa 0,0 l/m 0 min 0 min 102 W/m 19,3 km/h (3 Bft) 82,98 %
25.10.2022 11:52 15,6 C 16,7 C 12,8 C 85 % 1016,8 hPa 0,0 l/m 0 min 0 min 88 W/m 22,5 km/h (4 Bft) 86,96 %
25.10.2022 11:54 15,6 C 16,7 C 12,2 C 85 % 1016,9 hPa 0,0 l/m 0 min 0 min 180 W/m 22,5 km/h (4 Bft) 76,60 %
25.10.2022 11:56 15,6 C 16,7 C 12,2 C 85 % 1016,9 hPa 0,0 l/m 0 min 0 min 119 W/m 12,9 km/h (3 Bft) 91,49 %
25.10.2022 11:58 15,7 C 16,7 C 12,2 C 85 % 1016,9 hPa 0,0 l/m 0 min 0 min 96 W/m 35,4 km/h (5 Bft) 91,49 %
25.10.2022 12:00 15,7 C 16,1 C 12,2 C 85 % 1016,9 hPa 0,0 l/m 0 min 0 min 183 W/m 19,3 km/h (3 Bft) 97,87 %
25.10.2022 12:02 15,7 C 16,1 C 12,2 C 85 % 1016,9 hPa 0,0 l/m 0 min 0 min 191 W/m 16,1 km/h (3 Bft) 95,74 %
25.10.2022 12:04 15,7 C 16,1 C 12,2 C 85 % 1016,9 hPa 0,0 l/m 0 min 0 min 139 W/m 19,3 km/h (3 Bft) 97,83 %
25.10.2022 12:08 15,8 C 16,1 C 12,2 C 85 % 1017,0 hPa 0,0 l/m 0 min 0 min 98 W/m 35,4 km/h (5 Bft) 96,84 %
25.10.2022 12:10 15,8 C 15,6 C 12,2 C 85 % 1017,0 hPa 0,0 l/m 0 min 0 min 121 W/m 22,5 km/h (4 Bft) 97,87 %
25.10.2022 12:12 15,9 C 16,1 C 12,2 C 85 % 1017,0 hPa 0,0 l/m 0 min 0 min 116 W/m 12,9 km/h (3 Bft) 97,87 %
25.10.2022 12:14 15,9 C 16,1 C 12,2 C 85 % 1017,0 hPa 0,0 l/m 0 min 0 min 122 W/m 12,9 km/h (3 Bft) 97,87 %
25.10.2022 12:16 16,0 C 16,1 C 12,2 C 85 % 1017,0 hPa 0,0 l/m 0 min 0 min 138 W/m 19,3 km/h (3 Bft) 97,87 %
25.10.2022 12:18 16,1 C 16,1 C 12,2 C 85 % 1017,0 hPa 0,0 l/m 0 min 0 min 129 W/m 19,3 km/h (3 Bft) 97,87 %
25.10.2022 12:20 16,1 C 16,1 C 12,2 C 84 % 1017,0 hPa 0,0 l/m 0 min 0 min 107 W/m 19,3 km/h (3 Bft) 97,83 %
25.10.2022 12:22 16,1 C 15,6 C 12,2 C 84 % 1017,1 hPa 0,0 l/m 0 min 0 min 83 W/m 16,1 km/h (3 Bft) 97,87 %
25.10.2022 12:24 16,1 C 15,6 C 12,2 C 84 % 1017,1 hPa 0,0 l/m 0 min 0 min 72 W/m 16,1 km/h (3 Bft) 95,74 %
25.10.2022 12:26 16,0 C 15,6 C 11,7 C 84 % 1017,0 hPa 0,0 l/m 0 min 0 min 78 W/m 16,1 km/h (3 Bft) 100,00 %
25.10.2022 12:28 15,9 C 15,6 C 11,7 C 84 % 1017,1 hPa 0,0 l/m 0 min 0 min 73 W/m 12,9 km/h (3 Bft) 100,00 %
25.10.2022 12:30 15,8 C 15,0 C 11,7 C 84 % 1017,1 hPa 0,0 l/m 0 min 0 min 68 W/m 9,7 km/h (2 Bft) 98,31 %
25.10.2022 12:32 15,8 C 15,0 C 11,7 C 84 % 1017,1 hPa 0,0 l/m 0 min 0 min 60 W/m 16,1 km/h (3 Bft) 100,00 %
25.10.2022 12:34 15,7 C 15,0 C 11,7 C 84 % 1017,1 hPa 0,0 l/m 0 min 0 min 69 W/m 16,1 km/h (3 Bft) 100,00 %
25.10.2022 12:36 15,6 C 15,0 C 11,1 C 84 % 1017,1 hPa 0,0 l/m 0 min 0 min 71 W/m 16,1 km/h (3 Bft) 100,00 %
25.10.2022 12:38 15,5 C 15,0 C 11,1 C 84 % 1017,1 hPa 0,0 l/m 0 min 0 min 65 W/m 12,9 km/h (3 Bft) 97,87 %
25.10.2022 12:40 15,5 C 15,0 C 11,1 C 85 % 1017,2 hPa 0,0 l/m 0 min 0 min 68 W/m 6,4 km/h (2 Bft) 97,14 %
25.10.2022 12:42 15,4 C 15,0 C 11,1 C 85 % 1017,2 hPa 0,0 l/m 0 min 0 min 71 W/m 12,9 km/h (3 Bft) 100,00 %
25.10.2022 12:44 15,4 C 15,0 C 11,1 C 85 % 1017,1 hPa 0,0 l/m 0 min 0 min 70 W/m 12,9 km/h (3 Bft) 100,00 %
25.10.2022 12:46 15,3 C 15,0 C 11,1 C 85 % 1017,2 hPa 0,0 l/m 0 min 0 min 61 W/m 16,1 km/h (3 Bft) 97,22 %
25.10.2022 12:48 15,3 C 15,0 C 11,1 C 85 % 1017,2 hPa 0,0 l/m 0 min 0 min 67 W/m 19,3 km/h (3 Bft) 100,00 %
25.10.2022 12:50 15,4 C 15,0 C 11,7 C 85 % 1017,2 hPa 0,0 l/m 0 min 0 min 79 W/m 9,7 km/h (2 Bft) 97,87 %
25.10.2022 12:52 15,5 C 15,6 C 11,7 C 85 % 1017,2 hPa 0,0 l/m 0 min 0 min 91 W/m 6,4 km/h (2 Bft) 100,00 %
25.10.2022 12:54 15,6 C 15,6 C 11,7 C 85 % 1017,2 hPa 0,0 l/m 0 min 0 min 93 W/m 6,4 km/h (2 Bft) 100,00 %
25.10.2022 12:56 15,6 C 15,6 C 11,7 C 85 % 1017,2 hPa 0,0 l/m 0 min 0 min 101 W/m 16,1 km/h (3 Bft) 100,00 %
25.10.2022 12:58 15,7 C 15,6 C 11,7 C 85 % 1017,2 hPa 0,0 l/m 0 min 0 min 91 W/m 12,9 km/h (3 Bft) 97,87 %
25.10.2022 13:00 15,7 C 15,6 C 11,7 C 85 % 1017,2 hPa 0,0 l/m 0 min 0 min 102 W/m 12,9 km/h (3 Bft) 95,74 %
25.10.2022 13:02 15,8 C 16,1 C 11,7 C 85 % 1017,2 hPa 0,0 l/m 0 min 0 min 126 W/m 12,9 km/h (3 Bft) 91,49 %
25.10.2022 13:04 15,9 C 16,1 C 12,2 C 85 % 1017,2 hPa 0,0 l/m 0 min 0 min 133 W/m 22,5 km/h (4 Bft) 97,87 %
25.10.2022 13:06 16,0 C 16,1 C 12,2 C 84 % 1017,2 hPa 0,0 l/m 0 min 0 min 170 W/m 22,5 km/h (4 Bft) 97,87 %
25.10.2022 13:08 16,1 C 16,1 C 12,2 C 84 % 1017,2 hPa 0,0 l/m 0 min 0 min 184 W/m 9,7 km/h (2 Bft) 100,00 %
25.10.2022 13:10 16,1 C 16,1 C 12,2 C 84 % 1017,2 hPa 0,0 l/m 0 min 0 min 163 W/m 12,9 km/h (3 Bft) 97,87 %
25.10.2022 13:12 16,1 C 16,1 C 12,2 C 84 % 1017,3 hPa 0,0 l/m 0 min 0 min 137 W/m 16,1 km/h (3 Bft) 97,83 %
25.10.2022 13:14 16,1 C 16,1 C 12,2 C 83 % 1017,3 hPa 0,0 l/m 0 min 0 min 142 W/m 19,3 km/h (3 Bft) 95,74 %
25.10.2022 13:16 16,1 C 15,6 C 12,2 C 84 % 1017,2 hPa 0,0 l/m 0 min 0 min 104 W/m 16,1 km/h (3 Bft) 97,87 %
25.10.2022 13:18 16,0 C 15,6 C 11,7 C 83 % 1017,3 hPa 0,0 l/m 0 min 0 min 93 W/m 12,9 km/h (3 Bft) 95,74 %
25.10.2022 13:20 15,9 C 15,6 C 11,7 C 83 % 1017,2 hPa 0,0 l/m 0 min 0 min 85 W/m 22,5 km/h (4 Bft) 97,87 %
25.10.2022 13:22 15,9 C 15,6 C 11,7 C 83 % 1017,3 hPa 0,0 l/m 0 min 0 min 93 W/m 16,1 km/h (3 Bft) 97,83 %
25.10.2022 13:24 15,8 C 15,6 C 11,7 C 83 % 1017,2 hPa 0,0 l/m 0 min 0 min 99 W/m 16,1 km/h (3 Bft) 97,87 %
25.10.2022 13:26 15,8 C 15,6 C 11,7 C 83 % 1017,3 hPa 0,0 l/m 0 min 0 min 109 W/m 12,9 km/h (3 Bft) 95,74 %
25.10.2022 13:28 15,8 C 15,6 C 11,7 C 84 % 1017,3 hPa 0,0 l/m 0 min 0 min 128 W/m 6,4 km/h (2 Bft) 97,87 %
25.10.2022 13:30 15,8 C 15,6 C 11,7 C 84 % 1017,3 hPa 0,0 l/m 0 min 0 min 140 W/m 16,1 km/h (3 Bft) 95,74 %
25.10.2022 13:32 15,8 C 15,6 C 11,7 C 84 % 1017,3 hPa 0,0 l/m 0 min 0 min 139 W/m 6,4 km/h (2 Bft) 98,15 %
25.10.2022 13:34 15,9 C 16,1 C 11,7 C 84 % 1017,3 hPa 0,0 l/m 0 min 0 min 154 W/m 16,1 km/h (3 Bft) 97,87 %
25.10.2022 13:36 15,9 C 16,1 C 12,2 C 84 % 1017,3 hPa 0,0 l/m 0 min 0 min 156 W/m 16,1 km/h (3 Bft) 97,87 %
25.10.2022 13:38 15,9 C 16,1 C 12,2 C 83 % 1017,3 hPa 0,0 l/m 0 min 0 min 153 W/m 16,1 km/h (3 Bft) 100,00 %
25.10.2022 13:40 15,9 C 16,1 C 12,2 C 83 % 1017,2 hPa 0,0 l/m 0 min 0 min 177 W/m 16,1 km/h (3 Bft) 100,00 %
25.10.2022 13:42 16,0 C 16,1 C 12,2 C 83 % 1017,2 hPa 0,0 l/m 0 min 0 min 140 W/m 12,9 km/h (3 Bft) 97,87 %
25.10.2022 13:44 16,0 C 15,6 C 12,2 C 83 % 1017,2 hPa 0,0 l/m 0 min 0 min 115 W/m 19,3 km/h (3 Bft) 97,87 %
25.10.2022 13:46 16,0 C 15,6 C 12,2 C 83 % 1017,2 hPa 0,0 l/m 0 min 0 min 136 W/m 12,9 km/h (3 Bft) 100,00 %
25.10.2022 13:48 16,0 C 16,1 C 12,2 C 83 % 1017,2 hPa 0,0 l/m 0 min 0 min 176 W/m 6,4 km/h (2 Bft) 97,87 %
25.10.2022 13:50 16,1 C 16,1 C 12,2 C 84 % 1017,2 hPa 0,0 l/m 0 min 0 min 164 W/m 6,4 km/h (2 Bft) 97,87 %
25.10.2022 13:52 16,1 C 16,1 C 12,2 C 84 % 1017,3 hPa 0,0 l/m 0 min 0 min 164 W/m 12,9 km/h (3 Bft) 97,83 %
25.10.2022 13:54 16,1 C 16,1 C 12,2 C 83 % 1017,3 hPa 0,0 l/m 0 min 0 min 157 W/m 12,9 km/h (3 Bft) 95,74 %
25.10.2022 13:56 16,1 C 16,1 C 12,2 C 83 % 1017,2 hPa 0,0 l/m 0 min 0 min 111 W/m 9,7 km/h (2 Bft) 97,87 %
25.10.2022 13:58 16,1 C 16,1 C 12,2 C 83 % 1017,3 hPa 0,0 l/m 0 min 0 min 107 W/m 12,9 km/h (3 Bft) 97,87 %
25.10.2022 14:00 16,1 C 15,6 C 12,2 C 83 % 1017,2 hPa 0,0 l/m 0 min 0 min 128 W/m 19,3 km/h (3 Bft) 95,74 %
25.10.2022 14:02 16,1 C 15,6 C 12,2 C 83 % 1017,2 hPa 0,0 l/m 0 min 0 min 145 W/m 12,9 km/h (3 Bft) 98,00 %
25.10.2022 14:04 16,1 C 16,1 C 11,7 C 83 % 1017,1 hPa 0,0 l/m 0 min 0 min 127 W/m 12,9 km/h (3 Bft) 100,00 %
25.10.2022 14:06 16,1 C 16,1 C 12,2 C 83 % 1017,2 hPa 0,0 l/m 0 min 0 min 151 W/m 16,1 km/h (3 Bft) 93,62 %
25.10.2022 14:08 16,1 C 16,7 C 12,2 C 83 % 1017,1 hPa 0,0 l/m 0 min 0 min 141 W/m 12,9 km/h (3 Bft) 97,87 %
25.10.2022 14:10 16,2 C 17,2 C 12,2 C 83 % 1017,2 hPa 0,0 l/m 2 min 0 min 345 W/m 19,3 km/h (3 Bft) 93,48 %
25.10.2022 14:12 16,2 C 17,8 C 12,2 C 82 % 1017,2 hPa 0,0 l/m 2 min 0 min 448 W/m 12,9 km/h (3 Bft) 91,49 %
25.10.2022 14:14 16,4 C 18,3 C 12,2 C 82 % 1017,2 hPa 0,0 l/m 2 min 0 min 491 W/m 16,1 km/h (3 Bft) 97,87 %
25.10.2022 14:16 16,5 C 18,3 C 12,8 C 82 % 1017,2 hPa 0,0 l/m 2 min 0 min 508 W/m 12,9 km/h (3 Bft) 95,74 %
25.10.2022 14:18 16,6 C 18,3 C 12,8 C 82 % 1017,2 hPa 0,0 l/m 2 min 0 min 500 W/m 19,3 km/h (3 Bft) 87,23 %
25.10.2022 14:20 16,7 C 17,8 C 12,8 C 82 % 1017,2 hPa 0,0 l/m 2 min 0 min 490 W/m 19,3 km/h (3 Bft) 78,72 %
25.10.2022 14:22 16,8 C 17,8 C 12,8 C 81 % 1017,2 hPa 0,0 l/m 2 min 0 min 493 W/m 9,7 km/h (2 Bft) 86,96 %
25.10.2022 14:24 16,9 C 17,8 C 12,8 C 81 % 1017,2 hPa 0,0 l/m 2 min 0 min 431 W/m 12,9 km/h (3 Bft) 93,62 %
25.10.2022 14:26 16,9 C 17,8 C 12,8 C 81 % 1017,2 hPa 0,0 l/m 2 min 0 min 437 W/m 12,9 km/h (3 Bft) 95,74 %
25.10.2022 14:28 16,9 C 17,2 C 12,8 C 81 % 1017,2 hPa 0,0 l/m 2 min 0 min 237 W/m 6,4 km/h (2 Bft) 95,74 %
25.10.2022 14:30 17,0 C 17,2 C 12,8 C 81 % 1017,2 hPa 0,0 l/m 0 min 0 min 170 W/m 9,7 km/h (2 Bft) 91,49 %
25.10.2022 14:32 17,0 C 17,2 C 12,8 C 81 % 1017,2 hPa 0,0 l/m 0 min 0 min 138 W/m 12,9 km/h (3 Bft) 95,74 %
25.10.2022 14:34 17,0 C 16,7 C 12,8 C 81 % 1017,2 hPa 0,0 l/m 0 min 0 min 163 W/m 6,4 km/h (2 Bft) 95,65 %
25.10.2022 14:36 17,1 C 17,2 C 12,8 C 81 % 1017,2 hPa 0,0 l/m 0 min 0 min 171 W/m 12,9 km/h (3 Bft) 89,36 %
25.10.2022 14:38 17,0 C 16,7 C 12,8 C 81 % 1017,2 hPa 0,0 l/m 0 min 0 min 154 W/m 12,9 km/h (3 Bft) 95,74 %
25.10.2022 14:40 17,0 C 16,7 C 12,8 C 80 % 1017,2 hPa 0,0 l/m 0 min 0 min 138 W/m 16,1 km/h (3 Bft) 95,74 %
25.10.2022 14:42 16,9 C 16,7 C 12,8 C 79 % 1017,2 hPa 0,0 l/m 0 min 0 min 196 W/m 16,1 km/h (3 Bft) 93,62 %
25.10.2022 14:44 17,0 C 16,7 C 12,8 C 80 % 1017,1 hPa 0,0 l/m 0 min 0 min 193 W/m 6,4 km/h (2 Bft) 95,74 %
25.10.2022 14:46 17,0 C 17,2 C 12,8 C 80 % 1017,2 hPa 0,0 l/m 2 min 0 min 201 W/m 25,7 km/h (4 Bft) 97,83 %
25.10.2022 14:48 17,0 C 17,2 C 12,8 C 80 % 1017,2 hPa 0,0 l/m 2 min 0 min 216 W/m 22,5 km/h (4 Bft) 91,49 %
25.10.2022 14:50 17,0 C 17,2 C 12,8 C 80 % 1017,2 hPa 0,0 l/m 2 min 0 min 379 W/m 32,2 km/h (5 Bft) 95,74 %
25.10.2022 14:52 17,0 C 17,2 C 12,8 C 79 % 1017,1 hPa 0,0 l/m 2 min 0 min 526 W/m 35,4 km/h (5 Bft) 95,74 %
25.10.2022 14:54 17,1 C 17,2 C 12,8 C 79 % 1017,1 hPa 0,0 l/m 2 min 0 min 406 W/m 22,5 km/h (4 Bft) 93,62 %
25.10.2022 14:56 17,1 C 17,2 C 12,8 C 79 % 1017,2 hPa 0,0 l/m 2 min 0 min 219 W/m 25,7 km/h (4 Bft) 93,62 %
25.10.2022 14:58 17,1 C 17,2 C 12,8 C 79 % 1017,1 hPa 0,0 l/m 2 min 0 min 209 W/m 6,4 km/h (2 Bft) 93,48 %
25.10.2022 15:00 17,1 C 17,2 C 12,8 C 79 % 1017,1 hPa 0,0 l/m 2 min 0 min 222 W/m 22,5 km/h (4 Bft) 95,74 %
25.10.2022 15:02 17,1 C 17,2 C 12,8 C 79 % 1017,2 hPa 0,0 l/m 2 min 0 min 250 W/m 19,3 km/h (3 Bft) 91,49 %
25.10.2022 15:04 17,1 C 17,8 C 12,8 C 79 % 1017,1 hPa 0,0 l/m 2 min 0 min 460 W/m 16,1 km/h (3 Bft) 97,87 %
25.10.2022 15:06 17,1 C 17,2 C 12,8 C 79 % 1017,0 hPa 0,0 l/m 2 min 0 min 193 W/m 12,9 km/h (3 Bft) 95,74 %
25.10.2022 15:08 17,1 C 17,2 C 12,8 C 79 % 1017,0 hPa 0,0 l/m 0 min 0 min 127 W/m 6,4 km/h (2 Bft) 100,00 %
25.10.2022 15:10 17,1 C 16,7 C 12,8 C 79 % 1017,0 hPa 0,0 l/m 0 min 0 min 117 W/m 12,9 km/h (3 Bft) 97,83 %
25.10.2022 15:12 17,1 C 16,7 C 12,8 C 79 % 1017,0 hPa 0,0 l/m 0 min 0 min 132 W/m 12,9 km/h (3 Bft) 95,74 %
25.10.2022 15:14 17,0 C 16,7 C 12,8 C 79 % 1017,0 hPa 0,0 l/m 0 min 0 min 142 W/m 16,1 km/h (3 Bft) 97,87 %
25.10.2022 15:16 17,0 C 16,7 C 12,8 C 79 % 1017,0 hPa 0,0 l/m 0 min 0 min 145 W/m 16,1 km/h (3 Bft) 97,87 %
25.10.2022 15:18 16,9 C 16,7 C 12,8 C 79 % 1017,0 hPa 0,0 l/m 0 min 0 min 165 W/m 12,9 km/h (3 Bft) 97,87 %
25.10.2022 15:20 16,9 C 16,7 C 12,8 C 79 % 1017,0 hPa 0,0 l/m 0 min 0 min 154 W/m 19,3 km/h (3 Bft) 97,87 %
25.10.2022 15:22 16,9 C 16,7 C 12,8 C 78 % 1017,0 hPa 0,0 l/m 0 min 0 min 145 W/m 16,1 km/h (3 Bft) 95,65 %
25.10.2022 15:24 16,9 C 16,7 C 12,8 C 78 % 1017,0 hPa 0,0 l/m 0 min 0 min 127 W/m 16,1 km/h (3 Bft) 95,74 %
25.10.2022 15:26 16,9 C 16,7 C 12,8 C 78 % 1017,0 hPa 0,0 l/m 0 min 0 min 97 W/m 19,3 km/h (3 Bft) 95,74 %
25.10.2022 15:28 16,8 C 16,7 C 12,8 C 79 % 1017,0 hPa 0,0 l/m 0 min 0 min 90 W/m 12,9 km/h (3 Bft) 95,74 %
25.10.2022 15:30 16,8 C 16,7 C 12,8 C 79 % 1017,0 hPa 0,0 l/m 0 min 0 min 100 W/m 12,9 km/h (3 Bft) 95,74 %
25.10.2022 15:32 16,8 C 16,7 C 12,8 C 79 % 1017,1 hPa 0,0 l/m 0 min 0 min 168 W/m 25,7 km/h (4 Bft) 97,87 %
25.10.2022 15:34 16,8 C 16,7 C 12,8 C 78 % 1017,0 hPa 0,0 l/m 2 min 0 min 184 W/m 22,5 km/h (4 Bft) 97,83 %
25.10.2022 15:36 16,8 C 16,7 C 12,8 C 78 % 1017,1 hPa 0,0 l/m 2 min 0 min 246 W/m 19,3 km/h (3 Bft) 96,61 %
25.10.2022 15:38 16,8 C 16,7 C 12,8 C 78 % 1017,1 hPa 0,0 l/m 2 min 0 min 178 W/m 25,7 km/h (4 Bft) 97,14 %
25.10.2022 15:40 16,8 C 16,7 C 12,8 C 78 % 1017,1 hPa 0,0 l/m 0 min 0 min 146 W/m 22,5 km/h (4 Bft) 97,87 %
25.10.2022 15:42 16,8 C 16,7 C 12,8 C 78 % 1017,1 hPa 0,0 l/m 0 min 0 min 116 W/m 16,1 km/h (3 Bft) 97,87 %
25.10.2022 15:44 16,8 C 16,7 C 12,8 C 78 % 1017,1 hPa 0,0 l/m 0 min 0 min 108 W/m 16,1 km/h (3 Bft) 97,87 %
25.10.2022 15:46 16,8 C 16,7 C 12,2 C 78 % 1017,1 hPa 0,0 l/m 0 min 0 min 107 W/m 25,7 km/h (4 Bft) 97,83 %
25.10.2022 15:48 16,8 C 16,1 C 12,2 C 78 % 1017,1 hPa 0,0 l/m 0 min 0 min 99 W/m 25,7 km/h (4 Bft) 97,87 %
25.10.2022 15:50 16,7 C 16,1 C 12,2 C 78 % 1017,1 hPa 0,0 l/m 0 min 0 min 100 W/m 19,3 km/h (3 Bft) 100,00 %
25.10.2022 15:52 16,7 C 16,1 C 12,2 C 77 % 1017,1 hPa 0,0 l/m 0 min 0 min 104 W/m 19,3 km/h (3 Bft) 100,00 %
25.10.2022 15:54 16,7 C 16,1 C 12,2 C 77 % 1017,1 hPa 0,0 l/m 0 min 0 min 107 W/m 19,3 km/h (3 Bft) 100,00 %
25.10.2022 15:56 16,7 C 16,1 C 12,2 C 77 % 1017,2 hPa 0,0 l/m 0 min 0 min 115 W/m 19,3 km/h (3 Bft) 100,00 %
25.10.2022 15:58 16,7 C 16,1 C 12,2 C 77 % 1017,1 hPa 0,0 l/m 0 min 0 min 114 W/m 12,9 km/h (3 Bft) 100,00 %
25.10.2022 16:00 16,7 C 16,1 C 12,2 C 77 % 1017,2 hPa 0,0 l/m 0 min 0 min 127 W/m 16,1 km/h (3 Bft) 100,00 %
25.10.2022 16:02 16,7 C 16,1 C 12,2 C 77 % 1017,1 hPa 0,0 l/m 0 min 0 min 133 W/m 12,9 km/h (3 Bft) 100,00 %
25.10.2022 16:04 16,7 C 16,1 C 12,2 C 78 % 1017,1 hPa 0,0 l/m 0 min 0 min 115 W/m 19,3 km/h (3 Bft) 97,87 %
25.10.2022 16:06 16,7 C 16,7 C 12,2 C 78 % 1017,1 hPa 0,0 l/m 0 min 0 min 111 W/m 19,3 km/h (3 Bft) 97,87 %
25.10.2022 16:08 16,7 C 16,7 C 12,2 C 77 % 1017,1 hPa 0,0 l/m 0 min 0 min 118 W/m 22,5 km/h (4 Bft) 100,00 %
25.10.2022 16:10 16,7 C 16,7 C 12,2 C 77 % 1017,1 hPa 0,0 l/m 0 min 0 min 114 W/m 16,1 km/h (3 Bft) 100,00 %
25.10.2022 16:12 16,7 C 16,1 C 12,2 C 77 % 1017,1 hPa 0,0 l/m 0 min 0 min 107 W/m 22,5 km/h (4 Bft) 100,00 %
25.10.2022 16:14 16,7 C 16,1 C 12,2 C 78 % 1017,1 hPa 0,0 l/m 0 min 0 min 105 W/m 12,9 km/h (3 Bft) 100,00 %
25.10.2022 16:16 16,7 C 16,1 C 12,2 C 78 % 1017,2 hPa 0,0 l/m 0 min 0 min 109 W/m 12,9 km/h (3 Bft) 100,00 %
25.10.2022 16:18 16,7 C 16,7 C 12,2 C 78 % 1017,1 hPa 0,0 l/m 0 min 0 min 125 W/m 6,4 km/h (2 Bft) 100,00 %
25.10.2022 16:20 16,7 C 16,7 C 12,2 C 78 % 1017,1 hPa 0,0 l/m 0 min 0 min 118 W/m 19,3 km/h (3 Bft) 100,00 %
25.10.2022 16:22 16,7 C 16,7 C 12,2 C 78 % 1017,1 hPa 0,0 l/m 0 min 0 min 109 W/m 16,1 km/h (3 Bft) 98,11 %
25.10.2022 16:24 16,7 C 16,7 C 12,2 C 78 % 1017,1 hPa 0,0 l/m 0 min 0 min 111 W/m 19,3 km/h (3 Bft) 100,00 %
25.10.2022 16:26 16,7 C 16,1 C 12,2 C 78 % 1017,1 hPa 0,0 l/m 0 min 0 min 108 W/m 16,1 km/h (3 Bft) 95,65 %
25.10.2022 16:28 16,7 C 16,1 C 12,2 C 78 % 1017,1 hPa 0,0 l/m 0 min 0 min 105 W/m 19,3 km/h (3 Bft) 100,00 %
25.10.2022 16:30 16,7 C 16,1 C 12,2 C 78 % 1017,0 hPa 0,0 l/m 0 min 0 min 106 W/m 16,1 km/h (3 Bft) 100,00 %
25.10.2022 16:32 16,7 C 16,1 C 12,2 C 78 % 1017,1 hPa 0,0 l/m 0 min 0 min 88 W/m 6,4 km/h (2 Bft) 100,00 %
25.10.2022 16:34 16,7 C 16,1 C 12,2 C 79 % 1017,1 hPa 0,0 l/m 0 min 0 min 77 W/m 19,3 km/h (3 Bft) 100,00 %
25.10.2022 16:36 16,7 C 16,1 C 12,2 C 78 % 1017,1 hPa 0,0 l/m 0 min 0 min 82 W/m 19,3 km/h (3 Bft) 100,00 %
25.10.2022 16:38 16,7 C 16,1 C 12,2 C 78 % 1017,1 hPa 0,0 l/m 0 min 0 min 80 W/m 22,5 km/h (4 Bft) 97,83 %
25.10.2022 16:40 16,7 C 16,1 C 12,2 C 78 % 1017,2 hPa 0,0 l/m 0 min 0 min 71 W/m 12,9 km/h (3 Bft) 97,87 %
25.10.2022 16:42 16,7 C 16,1 C 12,2 C 78 % 1017,2 hPa 0,0 l/m 0 min 0 min 71 W/m 6,4 km/h (2 Bft) 100,00 %
25.10.2022 16:44 16,6 C 16,1 C 12,2 C 79 % 1017,2 hPa 0,0 l/m 0 min 0 min 85 W/m 19,3 km/h (3 Bft) 100,00 %
25.10.2022 16:46 16,6 C 16,1 C 12,2 C 79 % 1017,1 hPa 0,0 l/m 0 min 0 min 90 W/m 12,9 km/h (3 Bft) 100,00 %
25.10.2022 16:48 16,6 C 16,1 C 12,2 C 79 % 1017,0 hPa 0,0 l/m 0 min 0 min 84 W/m 16,1 km/h (3 Bft) 100,00 %
25.10.2022 16:50 16,6 C 16,1 C 12,2 C 79 % 1017,0 hPa 0,0 l/m 0 min 0 min 83 W/m 25,7 km/h (4 Bft) 97,83 %
25.10.2022 16:52 16,6 C 16,1 C 12,2 C 79 % 1017,0 hPa 0,0 l/m 0 min 0 min 82 W/m 16,1 km/h (3 Bft) 95,74 %
25.10.2022 16:54 16,6 C 16,1 C 12,2 C 79 % 1017,0 hPa 0,0 l/m 0 min 0 min 68 W/m 9,7 km/h (2 Bft) 97,87 %
25.10.2022 16:56 16,6 C 16,1 C 12,2 C 79 % 1017,0 hPa 0,0 l/m 0 min 0 min 56 W/m 16,1 km/h (3 Bft) 97,87 %
25.10.2022 16:58 16,5 C 15,6 C 12,2 C 79 % 1017,0 hPa 0,0 l/m 0 min 0 min 49 W/m 22,5 km/h (4 Bft) 97,87 %
25.10.2022 17:00 16,5 C 15,6 C 11,7 C 79 % 1017,0 hPa 0,0 l/m 0 min 0 min 48 W/m 12,9 km/h (3 Bft) 97,87 %
25.10.2022 17:02 16,4 C 15,6 C 11,7 C 79 % 1017,0 hPa 0,0 l/m 0 min 0 min 55 W/m 6,4 km/h (2 Bft) 95,65 %
25.10.2022 17:04 16,4 C 15,6 C 11,7 C 79 % 1017,0 hPa 0,0 l/m 0 min 0 min 58 W/m 12,9 km/h (3 Bft) 93,62 %
25.10.2022 17:06 16,4 C 15,6 C 11,7 C 79 % 1016,9 hPa 0,0 l/m 0 min 0 min 53 W/m 16,1 km/h (3 Bft) 97,87 %
25.10.2022 17:08 16,4 C 15,6 C 11,7 C 79 % 1016,9 hPa 0,0 l/m 0 min 0 min 48 W/m 16,1 km/h (3 Bft) 95,74 %
25.10.2022 17:10 16,4 C 15,6 C 11,7 C 80 % 1016,9 hPa 0,0 l/m 0 min 0 min 48 W/m 12,9 km/h (3 Bft) 95,74 %
25.10.2022 17:12 16,3 C 15,6 C 11,7 C 80 % 1016,9 hPa 0,0 l/m 0 min 0 min 48 W/m 16,1 km/h (3 Bft) 93,62 %
25.10.2022 17:14 16,3 C 15,6 C 11,7 C 79 % 1016,9 hPa 0,0 l/m 0 min 0 min 45 W/m 19,3 km/h (3 Bft) 93,48 %
25.10.2022 17:16 16,3 C 15,6 C 11,7 C 79 % 1016,8 hPa 0,0 l/m 0 min 0 min 41 W/m 19,3 km/h (3 Bft) 97,87 %
25.10.2022 17:18 16,3 C 15,6 C 11,7 C 80 % 1016,9 hPa 0,0 l/m 0 min 0 min 35 W/m 19,3 km/h (3 Bft) 95,74 %
25.10.2022 17:20 16,3 C 15,6 C 11,7 C 80 % 1016,8 hPa 0,0 l/m 0 min 0 min 32 W/m 6,4 km/h (2 Bft) 89,36 %
25.10.2022 17:22 16,3 C 15,6 C 11,7 C 80 % 1016,9 hPa 0,0 l/m 0 min 0 min 30 W/m 9,7 km/h (2 Bft) 93,62 %
25.10.2022 17:24 16,2 C 15,6 C 11,7 C 80 % 1016,9 hPa 0,0 l/m 0 min 0 min 32 W/m 16,1 km/h (3 Bft) 95,74 %
25.10.2022 17:26 16,2 C 15,6 C 11,7 C 80 % 1016,8 hPa 0,0 l/m 0 min 0 min 29 W/m 6,4 km/h (2 Bft) 93,48 %
25.10.2022 17:28 16,2 C 15,6 C 11,7 C 80 % 1016,8 hPa 0,0 l/m 0 min 0 min 27 W/m 9,7 km/h (2 Bft) 93,62 %
25.10.2022 17:30 16,2 C 15,6 C 11,7 C 80 % 1016,8 hPa 0,0 l/m 0 min 0 min 24 W/m 12,9 km/h (3 Bft) 93,62 %
25.10.2022 17:32 16,2 C 15,6 C 11,7 C 80 % 1016,8 hPa 0,0 l/m 0 min 0 min 25 W/m 9,7 km/h (2 Bft) 93,62 %
25.10.2022 17:34 16,1 C 15,6 C 11,7 C 80 % 1016,8 hPa 0,0 l/m 0 min 0 min 24 W/m 19,3 km/h (3 Bft) 93,62 %
25.10.2022 17:36 16,1 C 15,6 C 11,7 C 80 % 1016,8 hPa 0,0 l/m 0 min 0 min 17 W/m 16,1 km/h (3 Bft) 91,49 %
25.10.2022 17:38 16,1 C 15,6 C 11,7 C 80 % 1016,8 hPa 0,0 l/m 0 min 0 min 22 W/m 16,1 km/h (3 Bft) 95,65 %
25.10.2022 17:40 16,1 C 15,6 C 11,7 C 80 % 1016,7 hPa 0,0 l/m 0 min 0 min 23 W/m 6,4 km/h (2 Bft) 95,74 %
25.10.2022 17:42 16,1 C 15,0 C 11,7 C 80 % 1016,8 hPa 0,0 l/m 0 min 0 min 20 W/m 9,7 km/h (2 Bft) 93,62 %
25.10.2022 17:44 16,1 C 15,0 C 11,7 C 80 % 1016,8 hPa 0,0 l/m 0 min 0 min 19 W/m 12,9 km/h (3 Bft) 95,74 %
25.10.2022 17:46 16,1 C 15,0 C 11,7 C 80 % 1016,8 hPa 0,0 l/m 0 min 0 min 18 W/m 16,1 km/h (3 Bft) 93,62 %
25.10.2022 17:48 16,1 C 15,0 C 11,7 C 80 % 1016,8 hPa 0,0 l/m 0 min 0 min 18 W/m 16,1 km/h (3 Bft) 91,49 %
25.10.2022 17:50 16,1 C 15,0 C 11,7 C 80 % 1016,8 hPa 0,0 l/m 0 min 0 min 16 W/m 3,2 km/h (1 Bft) 95,65 %
25.10.2022 17:52 16,1 C 15,0 C 11,7 C 80 % 1016,8 hPa 0,0 l/m 0 min 0 min 19 W/m 3,2 km/h (1 Bft) 95,74 %
25.10.2022 17:54 16,1 C 15,0 C 11,1 C 80 % 1016,8 hPa 0,0 l/m 0 min 0 min 19 W/m 3,2 km/h (1 Bft) 97,87 %
25.10.2022 17:56 16,0 C 15,0 C 11,1 C 80 % 1016,8 hPa 0,0 l/m 0 min 0 min 16 W/m 3,2 km/h (1 Bft) 97,87 %
25.10.2022 17:58 16,0 C 15,0 C 11,1 C 80 % 1016,8 hPa 0,0 l/m 0 min 0 min 12 W/m 3,2 km/h (1 Bft) 97,87 %
25.10.2022 18:00 16,0 C 15,0 C 11,1 C 80 % 1016,7 hPa 0,0 l/m 0 min 0 min 11 W/m 12,9 km/h (3 Bft) 97,87 %
25.10.2022 18:02 16,0 C 15,0 C 11,1 C 80 % 1016,7 hPa 0,0 l/m 0 min 0 min 11 W/m 6,4 km/h (2 Bft) 97,83 %
25.10.2022 18:04 15,9 C 15,0 C 11,1 C 81 % 1016,7 hPa 0,0 l/m 0 min 0 min 11 W/m 3,2 km/h (1 Bft) 97,87 %
25.10.2022 18:08 15,9 C 15,0 C 11,1 C 81 % 1016,7 hPa 0,0 l/m 0 min 0 min 9 W/m 3,2 km/h (1 Bft) 97,94 %
25.10.2022 18:10 15,9 C 15,0 C 11,1 C 81 % 1016,6 hPa 0,0 l/m 0 min 0 min 7 W/m 6,4 km/h (2 Bft) 100,00 %
25.10.2022 18:12 15,9 C 15,0 C 11,1 C 81 % 1016,7 hPa 0,0 l/m 0 min 0 min 7 W/m 3,2 km/h (1 Bft) 100,00 %
25.10.2022 18:14 15,9 C 14,4 C 11,1 C 81 % 1016,7 hPa 0,0 l/m 0 min 0 min 5 W/m 6,4 km/h (2 Bft) 100,00 %
25.10.2022 18:16 15,9 C 14,4 C 11,1 C 81 % 1016,7 hPa 0,0 l/m 0 min 0 min 5 W/m 0,0 km/h (0 Bft) 100,00 %
25.10.2022 18:18 15,8 C 14,4 C 10,6 C 81 % 1016,6 hPa 0,0 l/m 0 min 0 min 3 W/m 0,0 km/h (0 Bft) 100,00 %
25.10.2022 18:20 15,8 C 14,4 C 10,6 C 81 % 1016,6 hPa 0,0 l/m 0 min 0 min 0 W/m 0,0 km/h (0 Bft) 100,00 %
25.10.2022 18:22 15,8 C 13,9 C 10,6 C 81 % 1016,5 hPa 0,0 l/m 0 min 0 min 0 W/m 0,0 km/h (0 Bft) 100,00 %
25.10.2022 18:24 15,8 C 13,9 C 10,6 C 82 % 1016,5 hPa 0,0 l/m 0 min 0 min 0 W/m 0,0 km/h (0 Bft) 97,87 %
25.10.2022 18:26 15,8 C 13,9 C 10,0 C 82 % 1016,5 hPa 0,0 l/m 0 min 0 min 0 W/m 0,0 km/h (0 Bft) 100,00 %
25.10.2022 18:28 15,7 C 13,3 C 10,0 C 82 % 1016,5 hPa 0,0 l/m 0 min 0 min 0 W/m 0,0 km/h (0 Bft) 97,87 %
25.10.2022 18:30 15,7 C 13,3 C 10,0 C 82 % 1016,5 hPa 0,0 l/m 0 min 0 min 0 W/m 0,0 km/h (0 Bft) 100,00 %
25.10.2022 18:32 15,7 C 13,3 C 9,4 C 82 % 1016,5 hPa 0,0 l/m 0 min 0 min 0 W/m 0,0 km/h (0 Bft) 97,87 %
25.10.2022 18:34 15,6 C 13,3 C 9,4 C 82 % 1016,5 hPa 0,0 l/m 0 min 0 min 0 W/m 0,0 km/h (0 Bft) 100,00 %
25.10.2022 18:36 15,5 C 12,8 C 9,4 C 82 % 1016,5 hPa 0,0 l/m 0 min 0 min 0 W/m 0,0 km/h (0 Bft) 100,00 %
25.10.2022 18:38 15,4 C 12,8 C 9,4 C 83 % 1016,5 hPa 0,0 l/m 0 min 0 min 0 W/m 0,0 km/h (0 Bft) 100,00 %
25.10.2022 18:40 15,4 C 12,8 C 9,4 C 82 % 1016,5 hPa 0,0 l/m 0 min 0 min 0 W/m 0,0 km/h (0 Bft) 97,87 %
25.10.2022 18:42 15,3 C 12,8 C 8,9 C 83 % 1016,5 hPa 0,0 l/m 0 min 0 min 0 W/m 0,0 km/h (0 Bft) 100,00 %
25.10.2022 18:44 15,2 C 12,8 C 8,9 C 83 % 1016,5 hPa 0,0 l/m 0 min 0 min 0 W/m 0,0 km/h (0 Bft) 100,00 %
25.10.2022 18:46 15,2 C 12,8 C 8,9 C 83 % 1016,5 hPa 0,0 l/m 0 min 0 min 0 W/m 0,0 km/h (0 Bft) 100,00 %
25.10.2022 18:48 15,1 C 12,8 C 8,9 C 83 % 1016,6 hPa 0,0 l/m 0 min 0 min 0 W/m 3,2 km/h (1 Bft) 100,00 %
25.10.2022 18:50 15,1 C 12,8 C 8,9 C 83 % 1016,5 hPa 0,0 l/m 0 min 0 min 0 W/m 3,2 km/h (1 Bft) 100,00 %
25.10.2022 18:52 14,9 C 12,8 C 9,4 C 84 % 1016,6 hPa 0,0 l/m 0 min 0 min 0 W/m 3,2 km/h (1 Bft) 100,00 %
25.10.2022 18:54 14,9 C 13,3 C 9,4 C 84 % 1016,5 hPa 0,0 l/m 0 min 0 min 0 W/m 3,2 km/h (1 Bft) 100,00 %
25.10.2022 18:56 14,8 C 13,3 C 9,4 C 84 % 1016,6 hPa 0,0 l/m 0 min 0 min 0 W/m 3,2 km/h (1 Bft) 100,00 %
25.10.2022 18:58 14,8 C 13,3 C 9,4 C 84 % 1016,5 hPa 0,0 l/m 0 min 0 min 0 W/m 3,2 km/h (1 Bft) 100,00 %
25.10.2022 19:00 14,8 C 12,8 C 9,4 C 84 % 1016,6 hPa 0,0 l/m 0 min 0 min 0 W/m 0,0 km/h (0 Bft) 100,00 %
25.10.2022 19:02 14,7 C 12,8 C 9,4 C 84 % 1016,5 hPa 0,0 l/m 0 min 0 min 0 W/m 0,0 km/h (0 Bft) 100,00 %
25.10.2022 19:04 14,7 C 12,8 C 9,4 C 85 % 1016,6 hPa 0,0 l/m 0 min 0 min 0 W/m 0,0 km/h (0 Bft) 97,87 %
25.10.2022 19:06 14,7 C 12,8 C 9,4 C 85 % 1016,5 hPa 0,0 l/m 0 min 0 min 0 W/m 0,0 km/h (0 Bft) 97,87 %
25.10.2022 19:08 14,6 C 12,8 C 9,4 C 85 % 1016,6 hPa 0,0 l/m 0 min 0 min 0 W/m 0,0 km/h (0 Bft) 100,00 %
25.10.2022 19:10 14,6 C 12,8 C 8,9 C 85 % 1016,6 hPa 0,0 l/m 0 min 0 min 0 W/m 0,0 km/h (0 Bft) 100,00 %
25.10.2022 19:12 14,6 C 12,8 C 8,9 C 85 % 1016,5 hPa 0,0 l/m 0 min 0 min 0 W/m 0,0 km/h (0 Bft) 97,83 %
25.10.2022 19:14 14,5 C 12,8 C 8,9 C 85 % 1016,5 hPa 0,0 l/m 0 min 0 min 0 W/m 0,0 km/h (0 Bft) 97,87 %
25.10.2022 19:16 14,4 C 12,2 C 8,9 C 85 % 1016,5 hPa 0,0 l/m 0 min 0 min 0 W/m 0,0 km/h (0 Bft) 95,74 %
25.10.2022 19:18 14,4 C 12,2 C 8,9 C 85 % 1016,5 hPa 0,0 l/m 0 min 0 min 0 W/m 0,0 km/h (0 Bft) 97,87 %
25.10.2022 19:20 14,3 C 12,2 C 8,9 C 85 % 1016,5 hPa 0,0 l/m 0 min 0 min 0 W/m 0,0 km/h (0 Bft) 53,33 %
25.10.2022 19:22 14,3 C 12,2 C 8,3 C 86 % 1016,4 hPa 0,0 l/m 0 min 0 min 0 W/m 0,0 km/h (0 Bft) 97,87 %
25.10.2022 19:24 14,3 C 11,7 C 8,3 C 86 % 1016,5 hPa 0,0 l/m 0 min 0 min 0 W/m 0,0 km/h (0 Bft) 97,83 %
25.10.2022 19:26 14,3 C 11,7 C 8,3 C 86 % 1016,4 hPa 0,0 l/m 0 min 0 min 0 W/m 0,0 km/h (0 Bft) 97,87 %
25.10.2022 19:28 14,3 C 11,7 C 8,3 C 86 % 1016,5 hPa 0,0 l/m 0 min 0 min 0 W/m 3,2 km/h (1 Bft) 97,87 %
25.10.2022 19:30 14,2 C 12,2 C 8,3 C 86 % 1016,4 hPa 0,0 l/m 0 min 0 min 0 W/m 0,0 km/h (0 Bft) 97,87 %
25.10.2022 19:32 14,1 C 12,2 C 8,3 C 86 % 1016,4 hPa 0,0 l/m 0 min 0 min 0 W/m 0,0 km/h (0 Bft) 97,87 %
25.10.2022 19:34 14,1 C 12,2 C 8,3 C 86 % 1016,4 hPa 0,0 l/m 0 min 0 min 0 W/m 3,2 km/h (1 Bft) 97,87 %
25.10.2022 19:36 14,0 C 12,2 C 8,3 C 86 % 1016,5 hPa 0,0 l/m 0 min 0 min 0 W/m 0,0 km/h (0 Bft) 95,74 %
25.10.2022 19:38 14,0 C 12,2 C 8,9 C 87 % 1016,5 hPa 0,0 l/m 0 min 0 min 0 W/m 3,2 km/h (1 Bft) 95,65 %
25.10.2022 19:40 13,9 C 12,2 C 8,9 C 87 % 1016,5 hPa 0,0 l/m 0 min 0 min 0 W/m 3,2 km/h (1 Bft) 95,74 %
25.10.2022 19:42 13,9 C 12,2 C 8,9 C 87 % 1016,5 hPa 0,0 l/m 0 min 0 min 0 W/m 0,0 km/h (0 Bft) 97,87 %
25.10.2022 19:44 13,8 C 12,2 C 8,9 C 87 % 1016,5 hPa 0,0 l/m 0 min 0 min 0 W/m 0,0 km/h (0 Bft) 95,74 %
25.10.2022 19:46 13,8 C 12,2 C 8,9 C 87 % 1016,4 hPa 0,0 l/m 0 min 0 min 0 W/m 0,0 km/h (0 Bft) 95,74 %
25.10.2022 19:48 13,8 C 12,2 C 8,9 C 88 % 1016,4 hPa 0,0 l/m 0 min 0 min 0 W/m 0,0 km/h (0 Bft) 97,83 %
25.10.2022 19:50 13,8 C 12,2 C 8,9 C 88 % 1016,4 hPa 0,0 l/m 0 min 0 min 0 W/m 0,0 km/h (0 Bft) 97,87 %
25.10.2022 19:52 13,8 C 12,2 C 8,9 C 88 % 1016,4 hPa 0,0 l/m 0 min 0 min 0 W/m 0,0 km/h (0 Bft) 97,87 %
25.10.2022 19:54 13,7 C 12,2 C 8,9 C 88 % 1016,4 hPa 0,0 l/m 0 min 0 min 0 W/m 0,0 km/h (0 Bft) 97,87 %
25.10.2022 19:56 13,7 C 12,2 C 8,9 C 88 % 1016,4 hPa 0,0 l/m 0 min 0 min 0 W/m 0,0 km/h (0 Bft) 95,74 %
25.10.2022 19:58 13,7 C 12,2 C 8,9 C 88 % 1016,4 hPa 0,0 l/m 0 min 0 min 0 W/m 0,0 km/h (0 Bft) 95,74 %
25.10.2022 20:00 13,7 C 12,2 C 8,9 C 88 % 1016,4 hPa 0,0 l/m 0 min 0 min 0 W/m 0,0 km/h (0 Bft) 93,48 %
25.10.2022 20:02 13,7 C 12,2 C 8,9 C 88 % 1016,3 hPa 0,0 l/m 0 min 0 min 0 W/m 0,0 km/h (0 Bft) 93,62 %
25.10.2022 20:04 13,6 C 12,2 C 8,9 C 88 % 1016,3 hPa 0,0 l/m 0 min 0 min 0 W/m 0,0 km/h (0 Bft) 95,74 %
25.10.2022 20:06 13,6 C 12,2 C 8,9 C 89 % 1016,4 hPa 0,0 l/m 0 min 0 min 0 W/m 0,0 km/h (0 Bft) 95,74 %
25.10.2022 20:08 13,6 C 12,2 C 8,9 C 89 % 1016,4 hPa 0,0 l/m 0 min 0 min 0 W/m 0,0 km/h (0 Bft) 95,74 %
25.10.2022 20:10 13,6 C 12,2 C 8,9 C 89 % 1016,3 hPa 0,0 l/m 0 min 0 min 0 W/m 3,2 km/h (1 Bft) 93,62 %
25.10.2022 20:12 13,6 C 12,2 C 8,9 C 89 % 1016,4 hPa 0,0 l/m 0 min 0 min 0 W/m 0,0 km/h (0 Bft) 93,48 %
25.10.2022 20:14 13,5 C 12,2 C 8,9 C 89 % 1016,4 hPa 0,0 l/m 0 min 0 min 0 W/m 0,0 km/h (0 Bft) 91,49 %
25.10.2022 20:16 13,5 C 12,2 C 8,9 C 89 % 1016,4 hPa 0,0 l/m 0 min 0 min 0 W/m 0,0 km/h (0 Bft) 95,74 %
25.10.2022 20:18 13,5 C 12,2 C 8,9 C 89 % 1016,3 hPa 0,0 l/m 0 min 0 min 0 W/m 3,2 km/h (1 Bft) 93,62 %
25.10.2022 20:20 13,5 C 12,2 C 8,9 C 89 % 1016,3 hPa 0,0 l/m 0 min 0 min 0 W/m 3,2 km/h (1 Bft) 93,62 %
25.10.2022 20:22 13,4 C 12,2 C 8,9 C 89 % 1016,3 hPa 0,0 l/m 0 min 0 min 0 W/m 3,2 km/h (1 Bft) 95,74 %
25.10.2022 20:24 13,4 C 12,2 C 8,9 C 89 % 1016,3 hPa 0,0 l/m 0 min 0 min 0 W/m 3,2 km/h (1 Bft) 95,65 %
25.10.2022 20:26 13,4 C 12,2 C 8,9 C 89 % 1016,3 hPa 0,0 l/m 0 min 0 min 0 W/m 3,2 km/h (1 Bft) 95,74 %
25.10.2022 20:28 13,4 C 12,2 C 8,9 C 89 % 1016,3 hPa 0,0 l/m 0 min 0 min 0 W/m 3,2 km/h (1 Bft) 97,87 %
25.10.2022 20:30 13,4 C 12,2 C 8,9 C 90 % 1016,3 hPa 0,0 l/m 0 min 0 min 0 W/m 3,2 km/h (1 Bft) 91,49 %
25.10.2022 20:32 13,4 C 12,2 C 8,9 C 89 % 1016,3 hPa 0,0 l/m 0 min 0 min 0 W/m 0,0 km/h (0 Bft) 91,49 %
25.10.2022 20:34 13,3 C 12,2 C 8,9 C 89 % 1016,3 hPa 0,0 l/m 0 min 0 min 0 W/m 0,0 km/h (0 Bft) 95,74 %
25.10.2022 20:36 13,3 C 11,7 C 8,9 C 90 % 1016,3 hPa 0,0 l/m 0 min 0 min 0 W/m 0,0 km/h (0 Bft) 100,00 %
25.10.2022 20:38 13,3 C 11,7 C 8,3 C 90 % 1016,3 hPa 0,0 l/m 0 min 0 min 0 W/m 0,0 km/h (0 Bft) 100,00 %
25.10.2022 20:40 13,2 C 11,7 C 8,3 C 90 % 1016,3 hPa 0,0 l/m 0 min 0 min 0 W/m 0,0 km/h (0 Bft) 100,00 %
25.10.2022 20:42 13,2 C 11,1 C 8,3 C 90 % 1016,3 hPa 0,0 l/m 0 min 0 min 0 W/m 0,0 km/h (0 Bft) 97,87 %
25.10.2022 20:44 13,1 C 11,1 C 8,3 C 90 % 1016,4 hPa 0,0 l/m 0 min 0 min 0 W/m 0,0 km/h (0 Bft) 100,00 %
25.10.2022 20:46 13,1 C 11,1 C 8,3 C 90 % 1016,3 hPa 0,0 l/m 0 min 0 min 0 W/m 0,0 km/h (0 Bft) 100,00 %
25.10.2022 20:48 13,1 C 11,1 C 7,8 C 90 % 1016,4 hPa 0,0 l/m 0 min 0 min 0 W/m 0,0 km/h (0 Bft) 100,00 %
25.10.2022 20:50 13,0 C 11,1 C 7,8 C 90 % 1016,3 hPa 0,0 l/m 0 min 0 min 0 W/m 0,0 km/h (0 Bft) 95,74 %
25.10.2022 20:52 13,0 C 11,1 C 7,8 C 90 % 1016,3 hPa 0,0 l/m 0 min 0 min 0 W/m 0,0 km/h (0 Bft) 100,00 %
25.10.2022 20:54 12,9 C 11,1 C 7,8 C 90 % 1016,3 hPa 0,0 l/m 0 min 0 min 0 W/m 0,0 km/h (0 Bft) 100,00 %
25.10.2022 20:56 12,9 C 11,1 C 7,8 C 91 % 1016,3 hPa 0,0 l/m 0 min 0 min 0 W/m 0,0 km/h (0 Bft) 97,83 %
25.10.2022 20:58 12,9 C 11,1 C 7,8 C 91 % 1016,3 hPa 0,0 l/m 0 min 0 min 0 W/m 0,0 km/h (0 Bft) 100,00 %
25.10.2022 21:00 12,9 C 11,1 C 7,8 C 91 % 1016,3 hPa 0,0 l/m 0 min 0 min 0 W/m 0,0 km/h (0 Bft) 97,87 %
25.10.2022 21:02 12,8 C 11,1 C 7,2 C 91 % 1016,3 hPa 0,0 l/m 0 min 0 min 0 W/m 0,0 km/h (0 Bft) 95,74 %
25.10.2022 21:04 12,8 C 11,1 C 7,2 C 91 % 1016,2 hPa 0,0 l/m 0 min 0 min 0 W/m 0,0 km/h (0 Bft) 97,87 %
25.10.2022 21:06 12,8 C 11,1 C 7,2 C 91 % 1016,2 hPa 0,0 l/m 0 min 0 min 0 W/m 0,0 km/h (0 Bft) 97,87 %
25.10.2022 21:08 12,8 C 11,1 C 7,2 C 91 % 1016,2 hPa 0,0 l/m 0 min 0 min 0 W/m 0,0 km/h (0 Bft) 97,83 %
25.10.2022 21:10 12,8 C 11,1 C 7,2 C 91 % 1016,1 hPa 0,0 l/m 0 min 0 min 0 W/m 0,0 km/h (0 Bft) 97,87 %
25.10.2022 21:12 12,7 C 11,1 C 7,2 C 91 % 1016,1 hPa 0,0 l/m 0 min 0 min 0 W/m 0,0 km/h (0 Bft) 95,74 %
25.10.2022 21:14 12,7 C 11,1 C 7,2 C 91 % 1016,1 hPa 0,0 l/m 0 min 0 min 0 W/m 0,0 km/h (0 Bft) 95,74 %
25.10.2022 21:16 12,6 C 11,1 C 7,2 C 91 % 1016,1 hPa 0,0 l/m 0 min 0 min 0 W/m 0,0 km/h (0 Bft) 95,74 %
25.10.2022 21:18 12,6 C 11,1 C 7,2 C 91 % 1016,1 hPa 0,0 l/m 0 min 0 min 0 W/m 0,0 km/h (0 Bft) 97,87 %
25.10.2022 21:20 12,6 C 11,1 C 7,2 C 91 % 1016,0 hPa 0,0 l/m 0 min 0 min 0 W/m 0,0 km/h (0 Bft) 97,83 %
25.10.2022 21:22 12,5 C 11,1 C 7,2 C 91 % 1016,0 hPa 0,0 l/m 0 min 0 min 0 W/m 0,0 km/h (0 Bft) 97,87 %
25.10.2022 21:24 12,5 C 11,1 C 7,2 C 92 % 1016,0 hPa 0,0 l/m 0 min 0 min 0 W/m 0,0 km/h (0 Bft) 97,87 %
25.10.2022 21:26 12,4 C 10,6 C 7,2 C 92 % 1016,0 hPa 0,0 l/m 0 min 0 min 0 W/m 0,0 km/h (0 Bft) 97,87 %
25.10.2022 21:28 12,4 C 10,6 C 7,2 C 92 % 1016,0 hPa 0,0 l/m 0 min 0 min 0 W/m 0,0 km/h (0 Bft) 100,00 %
25.10.2022 21:30 12,3 C 10,6 C 7,2 C 92 % 1016,0 hPa 0,0 l/m 0 min 0 min 0 W/m 0,0 km/h (0 Bft) 97,87 %
25.10.2022 21:32 12,3 C 10,6 C 7,2 C 92 % 1016,0 hPa 0,0 l/m 0 min 0 min 0 W/m 0,0 km/h (0 Bft) 97,83 %
25.10.2022 21:34 12,3 C 10,6 C 7,2 C 92 % 1015,9 hPa 0,0 l/m 0 min 0 min 0 W/m 0,0 km/h (0 Bft) 97,87 %
25.10.2022 21:36 12,2 C 10,6 C 7,2 C 92 % 1016,0 hPa 0,0 l/m 0 min 0 min 0 W/m 0,0 km/h (0 Bft) 76,60 %
25.10.2022 21:38 12,2 C 10,6 C 7,2 C 92 % 1016,0 hPa 0,0 l/m 0 min 0 min 0 W/m 0,0 km/h (0 Bft) 74,29 %
25.10.2022 21:40 12,2 C 10,6 C 7,2 C 92 % 1015,9 hPa 0,0 l/m 0 min 0 min 0 W/m 0,0 km/h (0 Bft) 100,00 %
25.10.2022 21:42 12,2 C 10,6 C 7,2 C 92 % 1015,9 hPa 0,0 l/m 0 min 0 min 0 W/m 0,0 km/h (0 Bft) 100,00 %
25.10.2022 21:44 12,2 C 10,6 C 7,2 C 92 % 1015,9 hPa 0,0 l/m 0 min 0 min 0 W/m 0,0 km/h (0 Bft) 100,00 %
25.10.2022 21:46 12,2 C 10,6 C 7,2 C 92 % 1015,9 hPa 0,0 l/m 0 min 0 min 0 W/m 0,0 km/h (0 Bft) 100,00 %
25.10.2022 21:48 12,1 C 10,6 C 7,2 C 92 % 1015,9 hPa 0,0 l/m 0 min 0 min 0 W/m 0,0 km/h (0 Bft) 100,00 %
25.10.2022 21:50 12,1 C 10,6 C 7,2 C 93 % 1016,0 hPa 0,0 l/m 0 min 0 min 0 W/m 3,2 km/h (1 Bft) 100,00 %
25.10.2022 21:52 12,1 C 11,1 C 7,2 C 93 % 1016,0 hPa 0,0 l/m 0 min 0 min 0 W/m 0,0 km/h (0 Bft) 100,00 %
25.10.2022 21:54 12,1 C 11,1 C 7,2 C 93 % 1015,9 hPa 0,0 l/m 0 min 0 min 0 W/m 3,2 km/h (1 Bft) 100,00 %
25.10.2022 21:56 12,1 C 11,1 C 7,8 C 93 % 1015,9 hPa 0,0 l/m 0 min 0 min 0 W/m 0,0 km/h (0 Bft) 100,00 %
25.10.2022 21:58 12,1 C 11,1 C 7,8 C 93 % 1015,9 hPa 0,0 l/m 0 min 0 min 0 W/m 0,0 km/h (0 Bft) 97,87 %
25.10.2022 22:00 12,1 C 11,1 C 7,8 C 93 % 1015,9 hPa 0,0 l/m 0 min 0 min 0 W/m 0,0 km/h (0 Bft) 100,00 %
25.10.2022 22:02 12,1 C 11,1 C 7,8 C 93 % 1015,9 hPa 0,0 l/m 0 min 0 min 0 W/m 0,0 km/h (0 Bft) 97,87 %
25.10.2022 22:04 12,1 C 11,1 C 7,8 C 93 % 1015,9 hPa 0,0 l/m 0 min 0 min 0 W/m 3,2 km/h (1 Bft) 100,00 %
25.10.2022 22:06 12,0 C 11,1 C 7,8 C 93 % 1015,8 hPa 0,0 l/m 0 min 0 min 0 W/m 3,2 km/h (1 Bft) 97,83 %
25.10.2022 22:08 12,0 C 11,1 C 7,8 C 93 % 1015,9 hPa 0,0 l/m 0 min 0 min 0 W/m 0,0 km/h (0 Bft) 100,00 %
25.10.2022 22:10 12,0 C 11,1 C 7,8 C 93 % 1015,8 hPa 0,0 l/m 0 min 0 min 0 W/m 0,0 km/h (0 Bft) 100,00 %
25.10.2022 22:12 12,0 C 11,1 C 7,8 C 93 % 1015,8 hPa 0,0 l/m 0 min 0 min 0 W/m 0,0 km/h (0 Bft) 100,00 %
25.10.2022 22:14 12,0 C 11,1 C 7,8 C 93 % 1015,8 hPa 0,0 l/m 0 min 0 min 0 W/m 0,0 km/h (0 Bft) 100,00 %
25.10.2022 22:16 12,0 C 11,1 C 7,8 C 93 % 1015,8 hPa 0,0 l/m 0 min 0 min 0 W/m 3,2 km/h (1 Bft) 97,87 %
25.10.2022 22:18 11,9 C 11,1 C 7,8 C 93 % 1015,8 hPa 0,0 l/m 0 min 0 min 0 W/m 0,0 km/h (0 Bft) 100,00 %
25.10.2022 22:20 11,9 C 11,1 C 7,2 C 93 % 1015,8 hPa 0,0 l/m 0 min 0 min 0 W/m 0,0 km/h (0 Bft) 100,00 %
25.10.2022 22:22 11,9 C 10,6 C 7,2 C 93 % 1015,8 hPa 0,0 l/m 0 min 0 min 0 W/m 3,2 km/h (1 Bft) 100,00 %
25.10.2022 22:24 11,9 C 10,6 C 7,2 C 93 % 1015,8 hPa 0,0 l/m 0 min 0 min 0 W/m 0,0 km/h (0 Bft) 95,74 %
25.10.2022 22:26 11,9 C 10,6 C 7,8 C 93 % 1015,8 hPa 0,0 l/m 0 min 0 min 0 W/m 3,2 km/h (1 Bft) 97,87 %
25.10.2022 22:28 11,8 C 10,6 C 7,8 C 93 % 1015,9 hPa 0,0 l/m 0 min 0 min 0 W/m 6,4 km/h (2 Bft) 97,87 %
25.10.2022 22:30 11,8 C 10,6 C 7,8 C 93 % 1015,8 hPa 0,0 l/m 0 min 0 min 0 W/m 0,0 km/h (0 Bft) 97,87 %
25.10.2022 22:32 11,8 C 10,6 C 7,8 C 93 % 1015,8 hPa 0,0 l/m 0 min 0 min 0 W/m 0,0 km/h (0 Bft) 95,65 %
25.10.2022 22:34 11,8 C 10,6 C 7,8 C 93 % 1015,8 hPa 0,0 l/m 0 min 0 min 0 W/m 0,0 km/h (0 Bft) 95,74 %
25.10.2022 22:36 11,8 C 10,6 C 7,2 C 93 % 1015,8 hPa 0,0 l/m 0 min 0 min 0 W/m 0,0 km/h (0 Bft) 97,87 %
25.10.2022 22:38 11,8 C 10,6 C 7,8 C 93 % 1015,8 hPa 0,0 l/m 0 min 0 min 0 W/m 0,0 km/h (0 Bft) 97,87 %
25.10.2022 22:40 11,7 C 10,6 C 7,8 C 93 % 1015,8 hPa 0,0 l/m 0 min 0 min 0 W/m 3,2 km/h (1 Bft) 93,62 %
25.10.2022 22:42 11,7 C 10,6 C 7,8 C 93 % 1015,7 hPa 0,0 l/m 0 min 0 min 0 W/m 3,2 km/h (1 Bft) 95,65 %
25.10.2022 22:44 11,7 C 10,6 C 7,8 C 93 % 1015,8 hPa 0,0 l/m 0 min 0 min 0 W/m 0,0 km/h (0 Bft) 95,74 %
25.10.2022 22:46 11,7 C 10,6 C 7,8 C 93 % 1015,7 hPa 0,0 l/m 0 min 0 min 0 W/m 3,2 km/h (1 Bft) 95,74 %
25.10.2022 22:48 11,6 C 10,6 C 7,8 C 93 % 1015,8 hPa 0,0 l/m 0 min 0 min 0 W/m 0,0 km/h (0 Bft) 95,74 %
25.10.2022 22:50 11,6 C 10,6 C 7,2 C 93 % 1015,8 hPa 0,0 l/m 0 min 0 min 0 W/m 3,2 km/h (1 Bft) 95,74 %
25.10.2022 22:52 11,6 C 10,6 C 7,2 C 93 % 1015,7 hPa 0,0 l/m 0 min 0 min 0 W/m 3,2 km/h (1 Bft) 95,74 %
25.10.2022 22:54 11,6 C 10,6 C 7,2 C 93 % 1015,7 hPa 0,0 l/m 0 min 0 min 0 W/m 0,0 km/h (0 Bft) 93,48 %
25.10.2022 22:56 11,6 C 10,6 C 7,2 C 93 % 1015,7 hPa 0,0 l/m 0 min 0 min 0 W/m 0,0 km/h (0 Bft) 95,74 %
25.10.2022 22:58 11,6 C 10,6 C 7,2 C 93 % 1015,7 hPa 0,0 l/m 0 min 0 min 0 W/m 0,0 km/h (0 Bft) 98,00 %
25.10.2022 23:00 11,5 C 10,6 C 7,2 C 93 % 1015,7 hPa 0,0 l/m 0 min 0 min 0 W/m 0,0 km/h (0 Bft) 91,49 %
25.10.2022 23:02 11,5 C 10,0 C 7,2 C 93 % 1015,7 hPa 0,0 l/m 0 min 0 min 0 W/m 0,0 km/h (0 Bft) 97,87 %
25.10.2022 23:04 11,4 C 10,0 C 7,2 C 93 % 1015,7 hPa 0,0 l/m 0 min 0 min 0 W/m 0,0 km/h (0 Bft) 97,87 %
25.10.2022 23:06 11,4 C 10,0 C 7,2 C 93 % 1015,7 hPa 0,0 l/m 0 min 0 min 0 W/m 0,0 km/h (0 Bft) 95,65 %
25.10.2022 23:08 11,4 C 10,0 C 7,2 C 93 % 1015,7 hPa 0,0 l/m 0 min 0 min 0 W/m 0,0 km/h (0 Bft) 100,00 %
25.10.2022 23:10 11,4 C 10,0 C 7,2 C 93 % 1015,7 hPa 0,0 l/m 0 min 0 min 0 W/m 0,0 km/h (0 Bft) 95,74 %
25.10.2022 23:12 11,4 C 10,0 C 7,2 C 93 % 1015,7 hPa 0,0 l/m 0 min 0 min 0 W/m 3,2 km/h (1 Bft) 95,74 %
25.10.2022 23:14 11,3 C 10,0 C 7,2 C 93 % 1015,6 hPa 0,0 l/m 0 min 0 min 0 W/m 0,0 km/h (0 Bft) 97,87 %
25.10.2022 23:16 11,3 C 10,0 C 7,2 C 93 % 1015,6 hPa 0,0 l/m 0 min 0 min 0 W/m 0,0 km/h (0 Bft) 97,87 %
25.10.2022 23:18 11,3 C 10,0 C 7,2 C 93 % 1015,6 hPa 0,0 l/m 0 min 0 min 0 W/m 0,0 km/h (0 Bft) 95,65 %
25.10.2022 23:20 11,3 C 10,0 C 7,2 C 93 % 1015,6 hPa 0,0 l/m 0 min 0 min 0 W/m 3,2 km/h (1 Bft) 95,74 %
25.10.2022 23:22 11,3 C 10,0 C 7,2 C 93 % 1015,6 hPa 0,0 l/m 0 min 0 min 0 W/m 0,0 km/h (0 Bft) 97,87 %
25.10.2022 23:24 11,3 C 10,0 C 7,2 C 94 % 1015,6 hPa 0,0 l/m 0 min 0 min 0 W/m 0,0 km/h (0 Bft) 93,62 %
25.10.2022 23:26 11,3 C 10,0 C 7,2 C 94 % 1015,6 hPa 0,0 l/m 0 min 0 min 0 W/m 3,2 km/h (1 Bft) 95,74 %
25.10.2022 23:28 11,3 C 10,0 C 7,2 C 94 % 1015,6 hPa 0,0 l/m 0 min 0 min 0 W/m 3,2 km/h (1 Bft) 97,87 %
25.10.2022 23:30 11,3 C 10,0 C 7,2 C 94 % 1015,6 hPa 0,0 l/m 0 min 0 min 0 W/m 3,2 km/h (1 Bft) 95,65 %
25.10.2022 23:32 11,2 C 10,0 C 7,2 C 94 % 1015,5 hPa 0,0 l/m 0 min 0 min 0 W/m 3,2 km/h (1 Bft) 97,87 %
25.10.2022 23:34 11,2 C 10,0 C 7,2 C 94 % 1015,5 hPa 0,0 l/m 0 min 0 min 0 W/m 3,2 km/h (1 Bft) 97,87 %
25.10.2022 23:36 11,2 C 10,0 C 7,2 C 94 % 1015,5 hPa 0,0 l/m 0 min 0 min 0 W/m 3,2 km/h (1 Bft) 93,62 %
25.10.2022 23:38 11,2 C 10,0 C 7,2 C 94 % 1015,5 hPa 0,0 l/m 0 min 0 min 0 W/m 6,4 km/h (2 Bft) 95,74 %
25.10.2022 23:40 11,2 C 10,0 C 7,2 C 94 % 1015,5 hPa 0,0 l/m 0 min 0 min 0 W/m 3,2 km/h (1 Bft) 97,87 %
25.10.2022 23:42 11,2 C 10,0 C 7,2 C 94 % 1015,5 hPa 0,0 l/m 0 min 0 min 0 W/m 3,2 km/h (1 Bft) 95,65 %
25.10.2022 23:44 11,2 C 10,0 C 7,2 C 94 % 1015,5 hPa 0,0 l/m 0 min 0 min 0 W/m 3,2 km/h (1 Bft) 97,87 %
25.10.2022 23:46 11,1 C 10,0 C 7,2 C 94 % 1015,5 hPa 0,0 l/m 0 min 0 min 0 W/m 3,2 km/h (1 Bft) 97,87 %
25.10.2022 23:48 11,1 C 10,0 C 7,2 C 94 % 1015,5 hPa 0,0 l/m 0 min 0 min 0 W/m 3,2 km/h (1 Bft) 95,74 %
25.10.2022 23:50 11,1 C 10,6 C 7,2 C 94 % 1015,4 hPa 0,0 l/m 0 min 0 min 0 W/m 3,2 km/h (1 Bft) 97,87 %
25.10.2022 23:52 11,1 C 10,6 C 7,2 C 94 % 1015,4 hPa 0,0 l/m 0 min 0 min 0 W/m 3,2 km/h (1 Bft) 97,87 %
25.10.2022 23:54 11,2 C 10,6 C 7,2 C 94 % 1015,4 hPa 0,0 l/m 0 min 0 min 0 W/m 3,2 km/h (1 Bft) 95,65 %
25.10.2022 23:56 11,2 C 10,6 C 7,8 C 94 % 1015,4 hPa 0,0 l/m 0 min 0 min 0 W/m 3,2 km/h (1 Bft) 97,87 %
25.10.2022 23:58 11,2 C 10,6 C 7,8 C 95 % 1015,4 hPa 0,0 l/m 0 min 0 min 0 W/m 3,2 km/h (1 Bft) 93,62 %
_ Min-Zeit 23:46 23:02 21:02 15:52 00:02 - - - - 07:28 03:50
Minimum _ 11,1 C 10,0 C 7,2 C 77 % 1011,8 hPa - - - - 0,0 km/h (0 Bft) 52,27 %
_ Max-Zeit 14:36 11:22 11:46 00:00 13:12 00:00 10:54 06:48 14:52 11:58 01:00
Maximum _ 17,1 C 23,3 C 12,8 C 96 % 1017,3 hPa 0,0 l/m 2 min 2 min 526 W/m 35,4 km/h
S-SW (5 Bft)
100,00 %
Durchschnitt _ 14,2 C 13,6 C 9,9 C 89 % 1015,4 hPa #0,0 l/m #1:24 h #6 min. 112 W/m 10,8 km/h (2 Bft) 96,79 %
© 2022 W. Hausmann